Time,TemperatureF,DewpointF,PressureIn,WindDirection,WindDirectionDegrees,WindSpeedMPH,WindSpeedGustMPH,Humidity,HourlyPrecipIn,Conditions,Clouds,dailyrainin,SoftwareType,DateUTC
2013-01-21 00:02:00,37.8,36.9,30.27,NNE,22,0.0,0.0,97,0.00,,,0.00,WUHU21636XXSP,2013-01-21 08:02:00,
2013-01-21 00:03:00,37.9,37.0,30.27,NNE,22,0.0,0.0,97,0.00,,,0.00,WUHU21636XXSP,2013-01-21 08:03:00,
2013-01-21 00:04:00,37.9,37.0,30.27,NNE,22,0.0,0.0,97,0.00,,,0.00,WUHU21636XXSP,2013-01-21 08:04:00,
2013-01-21 00:07:00,37.9,37.0,30.27,NNE,22,0.0,0.0,97,0.00,,,0.00,WUHU21636XXSP,2013-01-21 08:07:00,
2013-01-21 00:08:00,37.9,37.0,30.27,NNE,22,0.0,0.0,97,0.00,,,0.00,WUHU21636XXSP,2013-01-21 08:08:00,
2013-01-21 00:09:00,37.9,37.0,30.27,NNE,22,0.0,0.0,97,0.00,,,0.00,WUHU21636XXSP,2013-01-21 08:09:00,
2013-01-21 00:12:00,37.8,36.9,30.27,ENE,67,0.0,0.0,97,0.00,,,0.00,WUHU21636XXSP,2013-01-21 08:12:00,
2013-01-21 00:14:00,37.8,36.9,30.27,ENE,67,0.0,0.0,97,0.00,,,0.00,WUHU21636XXSP,2013-01-21 08:14:00,
2013-01-21 00:17:00,37.8,36.9,30.27,NNE,22,0.4,0.4,97,0.00,,,0.00,WUHU21636XXSP,2013-01-21 08:17:00,
2013-01-21 00:19:00,37.8,36.9,30.27,NNE,22,0.4,0.4,97,0.00,,,0.00,WUHU21636XXSP,2013-01-21 08:19:00,
2013-01-21 00:20:00,37.8,36.9,30.27,NNE,22,0.4,0.4,97,0.00,,,0.00,WUHU21636XXSP,2013-01-21 08:20:00,
2013-01-21 00:22:00,37.6,36.7,30.27,NNW,337,0.0,0.4,97,0.00,,,0.00,WUHU21636XXSP,2013-01-21 08:22:00,
2013-01-21 00:24:00,37.6,36.7,30.27,NNE,22,0.0,0.4,97,0.00,,,0.00,WUHU21636XXSP,2013-01-21 08:24:00,
2013-01-21 00:25:00,37.6,36.7,30.27,NNE,22,0.0,0.4,97,0.00,,,0.00,WUHU21636XXSP,2013-01-21 08:25:00,
2013-01-21 00:27:00,37.6,36.7,30.27,NNE,22,0.0,0.4,97,0.00,,,0.00,WUHU21636XXSP,2013-01-21 08:27:00,
2013-01-21 00:29:00,37.6,36.7,30.27,North,0,0.0,0.0,97,0.00,,,0.00,WUHU21636XXSP,2013-01-21 08:29:00,
2013-01-21 00:30:00,37.6,36.7,30.27,North,0,0.0,0.0,97,0.00,,,0.00,WUHU21636XXSP,2013-01-21 08:30:00,
2013-01-21 00:33:00,37.6,36.7,30.27,North,0,0.0,0.0,97,0.00,,,0.00,WUHU21636XXSP,2013-01-21 08:33:00,
2013-01-21 00:34:00,37.6,36.7,30.26,North,0,0.0,0.0,97,0.00,,,0.00,WUHU21636XXSP,2013-01-21 08:34:00,
2013-01-21 00:35:00,37.6,36.7,30.26,North,0,0.0,0.0,97,0.00,,,0.00,WUHU21636XXSP,2013-01-21 08:35:00,
2013-01-21 00:38:00,37.6,36.7,30.27,North,0,0.0,0.0,97,0.00,,,0.00,WUHU21636XXSP,2013-01-21 08:38:00,
2013-01-21 00:39:00,37.6,36.7,30.26,North,0,0.0,0.0,97,0.00,,,0.00,WUHU21636XXSP,2013-01-21 08:39:00,
2013-01-21 00:40:00,37.4,36.5,30.26,NNE,22,2.2,2.2,97,0.00,,,0.00,WUHU21636XXSP,2013-01-21 08:40:00,
2013-01-21 00:43:00,37.4,36.5,30.27,NNE,22,2.2,2.2,97,0.00,,,0.00,WUHU21636XXSP,2013-01-21 08:43:00,
2013-01-21 00:44:00,37.2,36.3,30.27,NE,45,1.1,2.2,97,0.00,,,0.00,WUHU21636XXSP,2013-01-21 08:44:00,
2013-01-21 00:45:00,37.2,36.3,30.27,NE,45,1.1,2.2,97,0.00,,,0.00,WUHU21636XXSP,2013-01-21 08:45:00,
2013-01-21 00:48:00,37.2,36.3,30.27,North,0,5.3,5.3,97,0.00,,,0.00,WUHU21636XXSP,2013-01-21 08:48:00,
2013-01-21 00:49:00,37.2,36.3,30.27,North,0,5.3,5.3,97,0.00,,,0.00,WUHU21636XXSP,2013-01-21 08:49:00,
2013-01-21 00:50:00,37.2,36.3,30.27,North,0,0.0,5.3,97,0.00,,,0.00,WUHU21636XXSP,2013-01-21 08:50:00,
2013-01-21 00:53:00,37.2,36.3,30.27,NNE,22,0.8,5.3,97,0.00,,,0.00,WUHU21636XXSP,2013-01-21 08:53:00,
2013-01-21 00:54:00,37.2,36.3,30.26,NNE,22,0.8,5.3,97,0.00,,,0.00,WUHU21636XXSP,2013-01-21 08:54:00,
2013-01-21 00:55:00,37.2,36.3,30.26,NNE,22,0.8,5.3,97,0.00,,,0.00,WUHU21636XXSP,2013-01-21 08:55:00,
2013-01-21 00:58:00,37.2,36.3,30.27,North,0,0.0,0.8,97,0.00,,,0.00,WUHU21636XXSP,2013-01-21 08:58:00,
2013-01-21 01:00:00,37.2,36.3,30.27,North,0,2.0,2.0,97,0.00,,,0.00,WUHU21636XXSP,2013-01-21 09:00:00,
2013-01-21 01:01:00,37.2,36.3,30.26,North,0,2.0,2.0,97,0.00,,,0.00,WUHU21636XXSP,2013-01-21 09:01:00,
2013-01-21 01:04:00,37.2,36.3,30.27,NNE,22,0.0,2.0,97,0.00,,,0.00,WUHU21636XXSP,2013-01-21 09:04:00,
2013-01-21 01:05:00,37.2,36.3,30.27,NNE,22,0.0,2.0,97,0.00,,,0.00,WUHU21636XXSP,2013-01-21 09:05:00,
2013-01-21 01:06:00,37.2,36.3,30.27,NNE,22,0.0,2.0,97,0.00,,,0.00,WUHU21636XXSP,2013-01-21 09:06:00,
2013-01-21 01:09:00,37.2,36.3,30.27,NNE,22,0.0,2.0,97,0.00,,,0.00,WUHU21636XXSP,2013-01-21 09:09:00,
2013-01-21 01:10:00,37.2,36.3,30.27,NNE,22,0.0,2.0,97,0.00,,,0.00,WUHU21636XXSP,2013-01-21 09:10:00,
2013-01-21 01:11:00,37.2,36.3,30.27,NNE,22,0.0,2.0,97,0.00,,,0.00,WUHU21636XXSP,2013-01-21 09:11:00,
2013-01-21 01:14:00,37.2,36.3,30.27,NNE,22,0.0,0.0,97,0.00,,,0.00,WUHU21636XXSP,2013-01-21 09:14:00,
2013-01-21 01:15:00,37.2,36.3,30.27,NNE,22,0.0,0.0,97,0.00,,,0.00,WUHU21636XXSP,2013-01-21 09:15:00,
2013-01-21 01:16:00,37.2,36.3,30.27,NNE,22,0.0,0.0,97,0.00,,,0.00,WUHU21636XXSP,2013-01-21 09:16:00,
2013-01-21 01:20:00,37.2,36.3,30.27,North,0,0.0,0.0,97,0.00,,,0.00,WUHU21636XXSP,2013-01-21 09:20:00,
2013-01-21 01:21:00,37.4,36.5,30.27,NNE,22,0.0,0.0,97,0.00,,,0.00,WUHU21636XXSP,2013-01-21 09:21:00,
2013-01-21 01:22:00,37.4,36.5,30.27,NNE,22,0.0,0.0,97,0.00,,,0.00,WUHU21636XXSP,2013-01-21 09:22:00,
2013-01-21 01:25:00,37.2,36.3,30.27,North,0,2.6,2.6,97,0.00,,,0.00,WUHU21636XXSP,2013-01-21 09:25:00,
2013-01-21 01:26:00,37.2,36.3,30.27,North,0,2.6,2.6,97,0.00,,,0.00,WUHU21636XXSP,2013-01-21 09:26:00,
2013-01-21 01:27:00,37.2,36.3,30.27,North,0,6.7,7.3,97,0.00,,,0.00,WUHU21636XXSP,2013-01-21 09:27:00,
2013-01-21 01:30:00,37.2,36.3,30.27,North,0,2.4,7.6,97,0.00,,,0.00,WUHU21636XXSP,2013-01-21 09:30:00,
2013-01-21 01:31:00,37.2,36.3,30.27,North,0,2.4,7.6,97,0.00,,,0.00,WUHU21636XXSP,2013-01-21 09:31:00,
2013-01-21 01:32:00,37.2,36.3,30.26,North,0,0.0,7.6,97,0.00,,,0.00,WUHU21636XXSP,2013-01-21 09:32:00,
2013-01-21 01:35:00,37.2,36.3,30.27,North,0,0.0,7.6,97,0.00,,,0.00,WUHU21636XXSP,2013-01-21 09:35:00,
2013-01-21 01:37:00,37.2,36.3,30.27,North,0,0.0,7.6,97,0.00,,,0.00,WUHU21636XXSP,2013-01-21 09:37:00,
2013-01-21 01:41:00,37.2,36.3,30.27,North,0,0.0,0.0,97,0.00,,,0.00,WUHU21636XXSP,2013-01-21 09:41:00,
2013-01-21 01:42:00,37.2,36.3,30.27,NNW,337,0.0,0.0,97,0.00,,,0.00,WUHU21636XXSP,2013-01-21 09:42:00,
2013-01-21 01:46:00,37.2,36.3,30.27,North,0,0.0,0.0,97,0.00,,,0.00,WUHU21636XXSP,2013-01-21 09:46:00,
2013-01-21 01:47:00,37.2,36.3,30.27,North,0,0.0,0.0,97,0.00,,,0.00,WUHU21636XXSP,2013-01-21 09:47:00,
2013-01-21 01:48:00,37.2,36.3,30.27,North,0,0.0,0.0,97,0.00,,,0.00,WUHU21636XXSP,2013-01-21 09:48:00,
2013-01-21 01:51:00,37.2,36.3,30.27,North,0,0.0,0.0,97,0.00,,,0.00,WUHU21636XXSP,2013-01-21 09:51:00,
2013-01-21 01:52:00,37.2,36.3,30.27,North,0,0.0,0.0,97,0.00,,,0.00,WUHU21636XXSP,2013-01-21 09:52:00,
2013-01-21 01:53:00,37.2,36.3,30.27,North,0,0.0,0.0,97,0.00,,,0.00,WUHU21636XXSP,2013-01-21 09:53:00,
2013-01-21 01:56:00,37.2,36.3,30.27,North,0,0.0,0.0,97,0.00,,,0.00,WUHU21636XXSP,2013-01-21 09:56:00,
2013-01-21 01:57:00,37.2,36.3,30.27,North,0,0.0,0.0,97,0.00,,,0.00,WUHU21636XXSP,2013-01-21 09:57:00,
2013-01-21 01:58:00,37.2,36.3,30.27,North,0,0.0,0.0,97,0.00,,,0.00,WUHU21636XXSP,2013-01-21 09:58:00,
2013-01-21 02:01:00,37.2,36.3,30.27,NE,45,0.0,0.0,97,0.00,,,0.00,WUHU21636XXSP,2013-01-21 10:01:00,
2013-01-21 02:02:00,37.2,36.3,30.27,NE,45,0.0,0.0,97,0.00,,,0.00,WUHU21636XXSP,2013-01-21 10:02:00,
2013-01-21 02:03:00,37.2,36.3,30.27,NE,45,0.0,0.0,97,0.00,,,0.00,WUHU21636XXSP,2013-01-21 10:03:00,
2013-01-21 02:07:00,37.0,36.1,30.27,NE,45,0.0,0.0,97,0.00,,,0.00,WUHU21636XXSP,2013-01-21 10:07:00,
2013-01-21 02:08:00,37.0,36.1,30.27,NE,45,0.0,0.0,97,0.00,,,0.00,WUHU21636XXSP,2013-01-21 10:08:00,
2013-01-21 02:12:00,37.0,36.1,30.27,NE,45,0.0,0.0,97,0.00,,,0.00,WUHU21636XXSP,2013-01-21 10:12:00,
2013-01-21 02:13:00,37.0,36.1,30.27,NE,45,0.0,0.0,97,0.00,,,0.00,WUHU21636XXSP,2013-01-21 10:13:00,
2013-01-21 02:17:00,37.0,36.1,30.27,NE,45,0.0,0.0,97,0.00,,,0.00,WUHU21636XXSP,2013-01-21 10:17:00,
2013-01-21 02:18:00,37.0,36.1,30.27,NE,45,0.0,0.0,97,0.00,,,0.00,WUHU21636XXSP,2013-01-21 10:18:00,
2013-01-21 02:23:00,37.0,36.1,30.27,ESE,112,0.0,0.0,97,0.00,,,0.00,WUHU21636XXSP,2013-01-21 10:23:00,
2013-01-21 02:24:00,37.0,36.1,30.27,ESE,112,0.0,0.0,97,0.00,,,0.00,WUHU21636XXSP,2013-01-21 10:24:00,
2013-01-21 02:28:00,37.0,36.1,30.27,ESE,112,0.0,0.0,97,0.00,,,0.00,WUHU21636XXSP,2013-01-21 10:28:00,
2013-01-21 02:29:00,37.0,36.1,30.27,ESE,112,0.0,0.0,97,0.00,,,0.00,WUHU21636XXSP,2013-01-21 10:29:00,
2013-01-21 02:33:00,36.9,36.0,30.27,ESE,112,0.0,0.0,97,0.00,,,0.00,WUHU21636XXSP,2013-01-21 10:33:00,
2013-01-21 02:34:00,36.9,36.0,30.27,ESE,112,0.0,0.0,97,0.00,,,0.00,WUHU21636XXSP,2013-01-21 10:34:00,
2013-01-21 02:38:00,36.9,36.0,30.28,ESE,112,0.0,0.0,97,0.00,,,0.00,WUHU21636XXSP,2013-01-21 10:38:00,
2013-01-21 02:39:00,36.9,36.0,30.28,ESE,112,0.0,0.0,97,0.00,,,0.00,WUHU21636XXSP,2013-01-21 10:39:00,
2013-01-21 02:43:00,37.0,36.1,30.28,ESE,112,0.0,0.0,97,0.00,,,0.00,WUHU21636XXSP,2013-01-21 10:43:00,
2013-01-21 02:44:00,37.0,36.1,30.28,ESE,112,0.0,0.0,97,0.00,,,0.00,WUHU21636XXSP,2013-01-21 10:44:00,
2013-01-21 02:48:00,37.0,36.1,30.28,ESE,112,0.0,0.0,97,0.00,,,0.00,WUHU21636XXSP,2013-01-21 10:48:00,
2013-01-21 02:49:00,37.0,36.1,30.28,ESE,112,0.0,0.0,97,0.00,,,0.00,WUHU21636XXSP,2013-01-21 10:49:00,
2013-01-21 02:53:00,36.9,36.0,30.28,East,90,0.0,0.0,97,0.00,,,0.00,WUHU21636XXSP,2013-01-21 10:53:00,
2013-01-21 02:54:00,36.9,36.0,30.28,East,90,0.0,0.0,97,0.00,,,0.00,WUHU21636XXSP,2013-01-21 10:54:00,
2013-01-21 02:58:00,36.9,36.0,30.27,NE,45,0.0,0.0,97,0.00,,,0.00,WUHU21636XXSP,2013-01-21 10:58:00,
2013-01-21 02:59:00,36.7,35.8,30.27,NE,45,0.0,0.0,97,0.00,,,0.00,WUHU21636XXSP,2013-01-21 10:59:00,
2013-01-21 03:03:00,36.9,36.0,30.27,North,0,0.0,0.0,97,0.00,,,0.00,WUHU21636XXSP,2013-01-21 11:03:00,
2013-01-21 03:04:00,36.9,36.0,30.27,North,0,0.0,0.0,97,0.00,,,0.00,WUHU21636XXSP,2013-01-21 11:04:00,
2013-01-21 03:08:00,36.7,35.8,30.27,North,0,0.0,0.0,97,0.00,,,0.00,WUHU21636XXSP,2013-01-21 11:08:00,
2013-01-21 03:09:00,36.7,35.8,30.27,North,0,0.0,0.0,97,0.00,,,0.00,WUHU21636XXSP,2013-01-21 11:09:00,
2013-01-21 03:13:00,36.7,35.8,30.27,North,0,0.0,0.0,97,0.00,,,0.00,WUHU21636XXSP,2013-01-21 11:13:00,
2013-01-21 03:14:00,36.7,35.8,30.27,North,0,0.0,0.0,97,0.00,,,0.00,WUHU21636XXSP,2013-01-21 11:14:00,
2013-01-21 03:15:00,36.7,35.8,30.27,North,0,0.0,0.0,97,0.00,,,0.00,WUHU21636XXSP,2013-01-21 11:15:00,
2013-01-21 03:19:00,36.7,35.8,30.27,North,0,0.0,0.0,97,0.00,,,0.00,WUHU21636XXSP,2013-01-21 11:19:00,
2013-01-21 03:20:00,36.7,35.8,30.27,North,0,0.0,0.0,97,0.00,,,0.00,WUHU21636XXSP,2013-01-21 11:20:00,
2013-01-21 03:24:00,36.7,35.8,30.27,North,0,0.0,0.0,97,0.00,,,0.00,WUHU21636XXSP,2013-01-21 11:24:00,
2013-01-21 03:25:00,36.7,35.8,30.27,North,0,0.0,0.0,97,0.00,,,0.00,WUHU21636XXSP,2013-01-21 11:25:00,
2013-01-21 03:29:00,36.7,35.8,30.26,North,0,0.0,0.0,97,0.00,,,0.00,WUHU21636XXSP,2013-01-21 11:29:00,
2013-01-21 03:30:00,36.7,35.8,30.26,North,0,0.0,0.0,97,0.00,,,0.00,WUHU21636XXSP,2013-01-21 11:30:00,
2013-01-21 03:34:00,36.7,35.8,30.26,North,0,0.0,0.0,97,0.00,,,0.00,WUHU21636XXSP,2013-01-21 11:34:00,
2013-01-21 03:35:00,36.7,35.8,30.26,North,0,0.0,0.0,97,0.00,,,0.00,WUHU21636XXSP,2013-01-21 11:35:00,
2013-01-21 03:39:00,36.7,35.8,30.26,North,0,0.0,0.0,97,0.00,,,0.00,WUHU21636XXSP,2013-01-21 11:39:00,
2013-01-21 03:40:00,36.7,35.8,30.26,North,0,0.0,0.0,97,0.00,,,0.00,WUHU21636XXSP,2013-01-21 11:40:00,
2013-01-21 03:44:00,36.7,35.8,30.26,North,0,0.0,0.0,97,0.00,,,0.00,WUHU21636XXSP,2013-01-21 11:44:00,
2013-01-21 03:45:00,36.7,35.8,30.26,North,0,0.0,0.0,97,0.00,,,0.00,WUHU21636XXSP,2013-01-21 11:45:00,
2013-01-21 03:49:00,36.7,35.8,30.27,North,0,0.0,0.0,97,0.00,,,0.00,WUHU21636XXSP,2013-01-21 11:49:00,
2013-01-21 03:50:00,36.7,35.8,30.27,North,0,0.0,0.0,97,0.00,,,0.00,WUHU21636XXSP,2013-01-21 11:50:00,
2013-01-21 03:54:00,36.5,35.6,30.27,North,0,0.0,0.0,97,0.00,,,0.00,WUHU21636XXSP,2013-01-21 11:54:00,
2013-01-21 03:55:00,36.5,35.6,30.27,North,0,0.0,0.0,97,0.00,,,0.00,WUHU21636XXSP,2013-01-21 11:55:00,
2013-01-21 03:59:00,36.5,35.6,30.27,North,0,0.0,0.0,97,0.00,,,0.00,WUHU21636XXSP,2013-01-21 11:59:00,
2013-01-21 04:00:00,36.5,35.6,30.27,North,0,0.0,0.0,97,0.00,,,0.00,WUHU21636XXSP,2013-01-21 12:00:00,
2013-01-21 04:01:00,36.3,35.5,30.26,North,0,0.0,0.0,97,0.00,,,0.00,WUHU21636XXSP,2013-01-21 12:01:00,
2013-01-21 04:04:00,36.3,35.5,30.26,North,0,0.0,0.0,97,0.00,,,0.00,WUHU21636XXSP,2013-01-21 12:04:00,
2013-01-21 04:05:00,36.3,35.5,30.26,North,0,0.0,0.0,97,0.00,,,0.00,WUHU21636XXSP,2013-01-21 12:05:00,
2013-01-21 04:06:00,36.3,35.5,30.26,North,0,0.0,0.0,97,0.00,,,0.00,WUHU21636XXSP,2013-01-21 12:06:00,
2013-01-21 04:09:00,36.3,35.5,30.26,North,0,0.0,0.0,97,0.00,,,0.00,WUHU21636XXSP,2013-01-21 12:09:00,
2013-01-21 04:10:00,36.3,35.5,30.26,North,0,0.0,0.0,97,0.00,,,0.00,WUHU21636XXSP,2013-01-21 12:10:00,
2013-01-21 04:11:00,36.3,35.5,30.26,North,0,0.0,0.0,97,0.00,,,0.00,WUHU21636XXSP,2013-01-21 12:11:00,
2013-01-21 04:14:00,36.1,35.3,30.26,North,0,0.0,0.0,97,0.00,,,0.00,WUHU21636XXSP,2013-01-21 12:14:00,
2013-01-21 04:16:00,36.1,35.3,30.26,North,0,0.0,0.0,97,0.00,,,0.00,WUHU21636XXSP,2013-01-21 12:16:00,
2013-01-21 04:20:00,36.1,35.3,30.26,North,0,0.0,0.0,97,0.00,,,0.00,WUHU21636XXSP,2013-01-21 12:20:00,
2013-01-21 04:21:00,36.1,35.3,30.26,North,0,0.0,0.0,97,0.00,,,0.00,WUHU21636XXSP,2013-01-21 12:21:00,
2013-01-21 04:25:00,36.1,35.3,30.26,North,0,0.0,0.0,97,0.00,,,0.00,WUHU21636XXSP,2013-01-21 12:25:00,
2013-01-21 04:26:00,36.1,35.3,30.26,North,0,0.0,0.0,97,0.00,,,0.00,WUHU21636XXSP,2013-01-21 12:26:00,
2013-01-21 04:27:00,36.1,35.3,30.26,North,0,0.0,0.0,97,0.00,,,0.00,WUHU21636XXSP,2013-01-21 12:27:00,
2013-01-21 04:31:00,36.1,35.3,30.26,North,0,0.0,0.0,97,0.00,,,0.00,WUHU21636XXSP,2013-01-21 12:31:00,
2013-01-21 04:32:00,36.1,35.3,30.26,North,0,0.0,0.0,97,0.00,,,0.00,WUHU21636XXSP,2013-01-21 12:32:00,
2013-01-21 04:36:00,36.1,35.3,30.26,North,0,0.0,0.0,97,0.00,,,0.00,WUHU21636XXSP,2013-01-21 12:36:00,
2013-01-21 04:37:00,36.1,35.3,30.26,North,0,0.0,0.0,97,0.00,,,0.00,WUHU21636XXSP,2013-01-21 12:37:00,
2013-01-21 04:41:00,36.1,35.3,30.25,North,0,0.0,0.0,97,0.00,,,0.00,WUHU21636XXSP,2013-01-21 12:41:00,
2013-01-21 04:42:00,36.1,35.3,30.25,North,0,0.0,0.0,97,0.00,,,0.00,WUHU21636XXSP,2013-01-21 12:42:00,
2013-01-21 04:46:00,36.1,35.3,30.25,North,0,0.0,0.0,97,0.00,,,0.00,WUHU21636XXSP,2013-01-21 12:46:00,
2013-01-21 04:47:00,36.1,35.3,30.25,North,0,0.0,0.0,97,0.00,,,0.00,WUHU21636XXSP,2013-01-21 12:47:00,
2013-01-21 04:51:00,36.1,35.3,30.25,North,0,0.0,0.0,97,0.00,,,0.00,WUHU21636XXSP,2013-01-21 12:51:00,
2013-01-21 04:52:00,36.0,35.2,30.25,North,0,0.0,0.0,97,0.00,,,0.00,WUHU21636XXSP,2013-01-21 12:52:00,
2013-01-21 04:56:00,36.0,35.2,30.25,North,0,0.0,0.0,97,0.00,,,0.00,WUHU21636XXSP,2013-01-21 12:56:00,
2013-01-21 04:57:00,36.0,35.2,30.25,North,0,0.0,0.0,97,0.00,,,0.00,WUHU21636XXSP,2013-01-21 12:57:00,
2013-01-21 05:01:00,36.1,35.3,30.25,North,0,0.0,0.0,97,0.00,,,0.00,WUHU21636XXSP,2013-01-21 13:01:00,
2013-01-21 05:02:00,36.1,35.3,30.25,North,0,0.0,0.0,97,0.00,,,0.00,WUHU21636XXSP,2013-01-21 13:02:00,
2013-01-21 05:06:00,36.1,35.3,30.25,North,0,0.0,0.0,97,0.00,,,0.00,WUHU21636XXSP,2013-01-21 13:06:00,
2013-01-21 05:07:00,36.1,35.3,30.25,North,0,0.0,0.0,97,0.00,,,0.00,WUHU21636XXSP,2013-01-21 13:07:00,
2013-01-21 05:11:00,36.0,35.2,30.25,North,0,0.0,0.0,97,0.00,,,0.00,WUHU21636XXSP,2013-01-21 13:11:00,
2013-01-21 05:12:00,36.0,35.2,30.25,North,0,0.0,0.0,97,0.00,,,0.00,WUHU21636XXSP,2013-01-21 13:12:00,
2013-01-21 05:17:00,36.0,35.2,30.25,North,0,0.0,0.0,97,0.00,,,0.00,WUHU21636XXSP,2013-01-21 13:17:00,
2013-01-21 05:22:00,36.0,35.2,30.25,North,0,0.0,0.0,97,0.00,,,0.00,WUHU21636XXSP,2013-01-21 13:22:00,
2013-01-21 05:23:00,36.0,35.2,30.24,North,0,0.0,0.0,97,0.00,,,0.00,WUHU21636XXSP,2013-01-21 13:23:00,
2013-01-21 05:27:00,36.0,35.2,30.24,North,0,0.0,0.0,97,0.00,,,0.00,WUHU21636XXSP,2013-01-21 13:27:00,
2013-01-21 05:28:00,36.0,35.2,30.24,North,0,0.0,0.0,97,0.00,,,0.00,WUHU21636XXSP,2013-01-21 13:28:00,
2013-01-21 05:32:00,35.8,35.0,30.24,East,90,0.0,0.0,97,0.00,,,0.00,WUHU21636XXSP,2013-01-21 13:32:00,
2013-01-21 05:33:00,35.8,35.0,30.24,East,90,0.0,0.0,97,0.00,,,0.00,WUHU21636XXSP,2013-01-21 13:33:00,
2013-01-21 05:37:00,35.8,35.0,30.24,East,90,0.0,0.0,97,0.00,,,0.00,WUHU21636XXSP,2013-01-21 13:37:00,
2013-01-21 05:38:00,35.6,34.8,30.24,East,90,0.0,0.0,97,0.00,,,0.00,WUHU21636XXSP,2013-01-21 13:38:00,
2013-01-21 05:42:00,35.6,34.8,30.23,East,90,0.0,0.0,97,0.00,,,0.00,WUHU21636XXSP,2013-01-21 13:42:00,
2013-01-21 05:43:00,35.6,34.8,30.23,East,90,0.0,0.0,97,0.00,,,0.00,WUHU21636XXSP,2013-01-21 13:43:00,
2013-01-21 05:47:00,35.6,34.8,30.23,East,90,0.0,0.0,97,0.00,,,0.00,WUHU21636XXSP,2013-01-21 13:47:00,
2013-01-21 05:48:00,35.6,34.8,30.23,East,90,0.0,0.0,97,0.00,,,0.00,WUHU21636XXSP,2013-01-21 13:48:00,
2013-01-21 05:52:00,35.6,34.8,30.23,East,90,0.0,0.0,97,0.00,,,0.00,WUHU21636XXSP,2013-01-21 13:52:00,
2013-01-21 05:53:00,35.6,34.8,30.22,East,90,0.0,0.0,97,0.00,,,0.00,WUHU21636XXSP,2013-01-21 13:53:00,
2013-01-21 05:57:00,35.6,34.8,30.22,East,90,0.0,0.0,97,0.00,,,0.00,WUHU21636XXSP,2013-01-21 13:57:00,
2013-01-21 05:58:00,35.6,34.8,30.22,East,90,0.0,0.0,97,0.00,,,0.00,WUHU21636XXSP,2013-01-21 13:58:00,
2013-01-21 06:02:00,35.6,34.8,30.23,East,90,0.0,0.0,97,0.00,,,0.00,WUHU21636XXSP,2013-01-21 14:02:00,
2013-01-21 06:03:00,35.6,34.8,30.23,East,90,0.0,0.0,97,0.00,,,0.00,WUHU21636XXSP,2013-01-21 14:03:00,
2013-01-21 06:07:00,35.6,34.8,30.22,East,90,0.0,0.0,97,0.00,,,0.00,WUHU21636XXSP,2013-01-21 14:07:00,
2013-01-21 06:08:00,35.6,34.8,30.22,East,90,0.0,0.0,97,0.00,,,0.00,WUHU21636XXSP,2013-01-21 14:08:00,
2013-01-21 06:09:00,35.6,34.8,30.22,East,90,0.0,0.0,97,0.00,,,0.00,WUHU21636XXSP,2013-01-21 14:09:00,
2013-01-21 06:13:00,35.4,34.6,30.22,East,90,0.0,0.0,97,0.00,,,0.00,WUHU21636XXSP,2013-01-21 14:13:00,
2013-01-21 06:14:00,35.4,34.6,30.22,East,90,0.0,0.0,97,0.00,,,0.00,WUHU21636XXSP,2013-01-21 14:14:00,
2013-01-21 06:18:00,35.4,34.6,30.22,East,90,0.0,0.0,97,0.00,,,0.00,WUHU21636XXSP,2013-01-21 14:18:00,
2013-01-21 06:19:00,35.4,34.6,30.22,East,90,0.0,0.0,97,0.00,,,0.00,WUHU21636XXSP,2013-01-21 14:19:00,
2013-01-21 06:23:00,35.4,34.6,30.22,East,90,0.0,0.0,97,0.00,,,0.00,WUHU21636XXSP,2013-01-21 14:23:00,
2013-01-21 06:24:00,35.4,34.6,30.22,East,90,0.0,0.0,97,0.00,,,0.00,WUHU21636XXSP,2013-01-21 14:24:00,
2013-01-21 06:28:00,35.4,34.6,30.22,East,90,0.0,0.0,97,0.00,,,0.00,WUHU21636XXSP,2013-01-21 14:28:00,
2013-01-21 06:29:00,35.4,34.6,30.22,East,90,0.0,0.0,97,0.00,,,0.00,WUHU21636XXSP,2013-01-21 14:29:00,
2013-01-21 06:33:00,35.6,34.8,30.22,East,90,0.0,0.0,97,0.00,,,0.00,WUHU21636XXSP,2013-01-21 14:33:00,
2013-01-21 06:34:00,35.8,35.0,30.22,East,90,0.0,0.0,97,0.00,,,0.00,WUHU21636XXSP,2013-01-21 14:34:00,
2013-01-21 06:38:00,35.8,35.0,30.22,East,90,0.0,0.0,97,0.00,,,0.00,WUHU21636XXSP,2013-01-21 14:38:00,
2013-01-21 06:39:00,35.8,35.0,30.22,East,90,0.0,0.0,97,0.00,,,0.00,WUHU21636XXSP,2013-01-21 14:39:00,
2013-01-21 06:43:00,35.8,35.0,30.22,East,90,0.0,0.0,97,0.00,,,0.00,WUHU21636XXSP,2013-01-21 14:43:00,
2013-01-21 06:44:00,35.8,35.0,30.22,East,90,0.0,0.0,97,0.00,,,0.00,WUHU21636XXSP,2013-01-21 14:44:00,
2013-01-21 06:48:00,35.6,34.8,30.22,East,90,0.0,0.0,97,0.00,,,0.00,WUHU21636XXSP,2013-01-21 14:48:00,
2013-01-21 06:49:00,35.6,34.8,30.21,East,90,0.0,0.0,97,0.00,,,0.00,WUHU21636XXSP,2013-01-21 14:49:00,
2013-01-21 06:50:00,35.6,34.8,30.21,East,90,0.0,0.0,97,0.00,,,0.00,WUHU21636XXSP,2013-01-21 14:50:00,
2013-01-21 06:53:00,35.4,34.6,30.21,East,90,0.0,0.0,97,0.00,,,0.00,WUHU21636XXSP,2013-01-21 14:53:00,
2013-01-21 06:54:00,35.4,34.6,30.21,East,90,0.0,0.0,97,0.00,,,0.00,WUHU21636XXSP,2013-01-21 14:54:00,
2013-01-21 06:55:00,35.4,34.6,30.21,East,90,0.0,0.0,97,0.00,,,0.00,WUHU21636XXSP,2013-01-21 14:55:00,
2013-01-21 06:59:00,35.4,34.6,30.22,East,90,0.0,0.0,97,0.00,,,0.00,WUHU21636XXSP,2013-01-21 14:59:00,
2013-01-21 07:00:00,35.4,34.6,30.21,East,90,0.0,0.0,97,0.00,,,0.00,WUHU21636XXSP,2013-01-21 15:00:00,
2013-01-21 07:04:00,35.4,34.6,30.21,ESE,112,0.0,0.0,97,0.00,,,0.00,WUHU21636XXSP,2013-01-21 15:04:00,
2013-01-21 07:05:00,35.4,34.6,30.21,ESE,112,0.0,0.0,97,0.00,,,0.00,WUHU21636XXSP,2013-01-21 15:05:00,
2013-01-21 07:09:00,35.2,34.4,30.21,ESE,112,0.0,0.0,97,0.00,,,0.00,WUHU21636XXSP,2013-01-21 15:09:00,
2013-01-21 07:10:00,35.2,34.4,30.20,ESE,112,0.0,0.0,97,0.00,,,0.00,WUHU21636XXSP,2013-01-21 15:10:00,
2013-01-21 07:14:00,35.2,34.4,30.21,ESE,112,0.0,0.0,97,0.00,,,0.00,WUHU21636XXSP,2013-01-21 15:14:00,
2013-01-21 07:15:00,35.2,34.4,30.20,ESE,112,0.0,0.0,97,0.00,,,0.00,WUHU21636XXSP,2013-01-21 15:15:00,
2013-01-21 07:19:00,35.2,34.4,30.21,ESE,112,0.0,0.0,97,0.00,,,0.00,WUHU21636XXSP,2013-01-21 15:19:00,
2013-01-21 07:20:00,35.2,34.4,30.20,ESE,112,0.0,0.0,97,0.00,,,0.00,WUHU21636XXSP,2013-01-21 15:20:00,
2013-01-21 07:24:00,35.2,34.6,30.20,ESE,112,0.0,0.0,98,0.00,,,0.00,WUHU21636XXSP,2013-01-21 15:24:00,
2013-01-21 07:25:00,35.2,34.6,30.21,ESE,112,0.0,0.0,98,0.00,,,0.00,WUHU21636XXSP,2013-01-21 15:25:00,
2013-01-21 07:29:00,35.2,34.6,30.20,ESE,112,0.0,0.0,98,0.00,,,0.00,WUHU21636XXSP,2013-01-21 15:29:00,
2013-01-21 07:30:00,35.2,34.6,30.21,ESE,112,0.0,0.0,98,0.00,,,0.00,WUHU21636XXSP,2013-01-21 15:30:00,
2013-01-21 07:31:00,35.2,34.6,30.21,ESE,112,0.0,0.0,98,0.00,,,0.00,WUHU21636XXSP,2013-01-21 15:31:00,
2013-01-21 07:34:00,35.2,34.6,30.20,ESE,112,0.0,0.0,98,0.00,,,0.00,WUHU21636XXSP,2013-01-21 15:34:00,
2013-01-21 07:36:00,35.2,34.6,30.20,ESE,112,0.0,0.0,98,0.00,,,0.00,WUHU21636XXSP,2013-01-21 15:36:00,
2013-01-21 07:39:00,35.4,34.8,30.20,ESE,112,0.0,0.0,98,0.00,,,0.00,WUHU21636XXSP,2013-01-21 15:39:00,
2013-01-21 07:40:00,35.4,34.8,30.20,ESE,112,0.0,0.0,98,0.00,,,0.00,WUHU21636XXSP,2013-01-21 15:40:00,
2013-01-21 07:41:00,35.4,34.8,30.20,ESE,112,0.0,0.0,98,0.00,,,0.00,WUHU21636XXSP,2013-01-21 15:41:00,
2013-01-21 07:45:00,35.2,34.6,30.21,ESE,112,0.0,0.0,98,0.00,,,0.00,WUHU21636XXSP,2013-01-21 15:45:00,
2013-01-21 07:46:00,35.2,34.6,30.21,ESE,112,0.0,0.0,98,0.00,,,0.00,WUHU21636XXSP,2013-01-21 15:46:00,
2013-01-21 07:50:00,35.2,34.6,30.21,ESE,112,0.0,0.0,98,0.00,,,0.00,WUHU21636XXSP,2013-01-21 15:50:00,
2013-01-21 07:51:00,35.2,34.6,30.21,ESE,112,0.0,0.0,98,0.00,,,0.00,WUHU21636XXSP,2013-01-21 15:51:00,
2013-01-21 07:55:00,35.2,34.6,30.21,ESE,112,0.0,0.0,98,0.00,,,0.00,WUHU21636XXSP,2013-01-21 15:55:00,
2013-01-21 07:56:00,35.2,34.6,30.21,ESE,112,0.0,0.0,98,0.00,,,0.00,WUHU21636XXSP,2013-01-21 15:56:00,
2013-01-21 08:00:00,35.2,34.6,30.21,ESE,112,0.0,0.0,98,0.00,,,0.00,WUHU21636XXSP,2013-01-21 16:00:00,
2013-01-21 08:01:00,35.2,34.6,30.21,ESE,112,0.0,0.0,98,0.00,,,0.00,WUHU21636XXSP,2013-01-21 16:01:00,
2013-01-21 08:02:00,35.2,34.6,30.21,ESE,112,0.0,0.0,98,0.00,,,0.00,WUHU21636XXSP,2013-01-21 16:02:00,
2013-01-21 08:05:00,35.2,34.6,30.21,ESE,112,0.0,0.0,98,0.00,,,0.00,WUHU21636XXSP,2013-01-21 16:05:00,
2013-01-21 08:06:00,35.2,34.6,30.21,ESE,112,0.0,0.0,98,0.00,,,0.00,WUHU21636XXSP,2013-01-21 16:06:00,
2013-01-21 08:07:00,35.2,34.6,30.21,ESE,112,0.0,0.0,98,0.00,,,0.00,WUHU21636XXSP,2013-01-21 16:07:00,
2013-01-21 08:10:00,35.2,34.6,30.21,ESE,112,0.0,0.0,98,0.00,,,0.00,WUHU21636XXSP,2013-01-21 16:10:00,
2013-01-21 08:11:00,35.2,34.6,30.21,ESE,112,0.0,0.0,98,0.00,,,0.00,WUHU21636XXSP,2013-01-21 16:11:00,
2013-01-21 08:12:00,35.2,34.6,30.21,ESE,112,0.0,0.0,98,0.00,,,0.00,WUHU21636XXSP,2013-01-21 16:12:00,
2013-01-21 08:15:00,35.2,34.6,30.22,ESE,112,0.0,0.0,98,0.00,,,0.00,WUHU21636XXSP,2013-01-21 16:15:00,
2013-01-21 08:16:00,35.2,34.6,30.22,ESE,112,0.0,0.0,98,0.00,,,0.00,WUHU21636XXSP,2013-01-21 16:16:00,
2013-01-21 08:17:00,35.2,34.6,30.21,ESE,112,0.0,0.0,98,0.00,,,0.00,WUHU21636XXSP,2013-01-21 16:17:00,
2013-01-21 08:20:00,35.2,34.6,30.21,ESE,112,0.0,0.0,98,0.00,,,0.00,WUHU21636XXSP,2013-01-21 16:20:00,
2013-01-21 08:21:00,35.4,34.8,30.21,ESE,112,0.0,0.0,98,0.00,,,0.00,WUHU21636XXSP,2013-01-21 16:21:00,
2013-01-21 08:22:00,35.4,34.8,30.21,ESE,112,0.0,0.0,98,0.00,,,0.00,WUHU21636XXSP,2013-01-21 16:22:00,
2013-01-21 08:25:00,35.4,34.8,30.21,NNE,22,2.4,2.4,98,0.00,,,0.00,WUHU21636XXSP,2013-01-21 16:25:00,
2013-01-21 08:27:00,35.4,34.8,30.21,NNE,22,2.4,2.4,98,0.00,,,0.00,WUHU21636XXSP,2013-01-21 16:27:00,
2013-01-21 08:30:00,35.4,34.8,30.21,North,0,2.6,2.6,98,0.00,,,0.00,WUHU21636XXSP,2013-01-21 16:30:00,
2013-01-21 08:32:00,35.2,34.6,30.21,North,0,0.0,2.6,98,0.00,,,0.00,WUHU21636XXSP,2013-01-21 16:32:00,
2013-01-21 08:35:00,35.2,34.6,30.21,North,0,0.0,2.6,98,0.00,,,0.00,WUHU21636XXSP,2013-01-21 16:35:00,
2013-01-21 08:37:00,35.2,34.6,30.21,NNE,22,0.0,2.6,98,0.00,,,0.00,WUHU21636XXSP,2013-01-21 16:37:00,
2013-01-21 08:40:00,35.2,34.6,30.21,NNE,22,0.0,0.0,98,0.00,,,0.00,WUHU21636XXSP,2013-01-21 16:40:00,
2013-01-21 08:42:00,35.2,34.6,30.21,NNE,22,0.0,0.0,98,0.00,,,0.00,WUHU21636XXSP,2013-01-21 16:42:00,
2013-01-21 08:43:00,35.2,34.6,30.21,NNE,22,0.0,0.0,98,0.00,,,0.00,WUHU21636XXSP,2013-01-21 16:43:00,
2013-01-21 08:46:00,35.2,34.6,30.22,NNE,22,0.0,0.0,98,0.00,,,0.00,WUHU21636XXSP,2013-01-21 16:46:00,
2013-01-21 08:47:00,35.2,34.6,30.21,NNE,22,0.0,0.0,98,0.00,,,0.00,WUHU21636XXSP,2013-01-21 16:47:00,
2013-01-21 08:48:00,35.2,34.6,30.21,NNE,22,0.0,0.0,98,0.00,,,0.00,WUHU21636XXSP,2013-01-21 16:48:00,
2013-01-21 08:51:00,35.2,34.6,30.22,NNE,22,0.0,0.0,98,0.00,,,0.00,WUHU21636XXSP,2013-01-21 16:51:00,
2013-01-21 08:52:00,35.2,34.6,30.22,NNE,22,0.0,0.0,98,0.00,,,0.00,WUHU21636XXSP,2013-01-21 16:52:00,
2013-01-21 08:53:00,35.2,34.6,30.22,NNE,22,0.0,0.0,98,0.00,,,0.00,WUHU21636XXSP,2013-01-21 16:53:00,
2013-01-21 08:56:00,35.2,34.6,30.22,NNE,22,0.0,0.0,98,0.00,,,0.00,WUHU21636XXSP,2013-01-21 16:56:00,
2013-01-21 08:57:00,35.2,34.6,30.22,NNE,22,0.0,0.0,98,0.00,,,0.00,WUHU21636XXSP,2013-01-21 16:57:00,
2013-01-21 08:58:00,35.2,34.6,30.22,NNE,22,0.0,0.0,98,0.00,,,0.00,WUHU21636XXSP,2013-01-21 16:58:00,
2013-01-21 09:01:00,35.4,34.8,30.22,East,90,0.0,0.0,98,0.00,,,0.00,WUHU21636XXSP,2013-01-21 17:01:00,
2013-01-21 09:02:00,35.4,34.8,30.22,NE,45,0.0,0.0,98,0.00,,,0.00,WUHU21636XXSP,2013-01-21 17:02:00,
2013-01-21 09:03:00,35.4,34.8,30.22,NE,45,0.0,0.0,98,0.00,,,0.00,WUHU21636XXSP,2013-01-21 17:03:00,
2013-01-21 09:06:00,35.4,34.8,30.22,ENE,67,0.0,0.0,98,0.00,,,0.00,WUHU21636XXSP,2013-01-21 17:06:00,
2013-01-21 09:07:00,35.4,34.8,30.23,East,90,0.0,0.0,98,0.00,,,0.00,WUHU21636XXSP,2013-01-21 17:07:00,
2013-01-21 09:08:00,35.4,34.8,30.23,East,90,0.0,0.0,98,0.00,,,0.00,WUHU21636XXSP,2013-01-21 17:08:00,
2013-01-21 09:11:00,35.4,34.8,30.22,East,90,0.0,0.0,98,0.00,,,0.00,WUHU21636XXSP,2013-01-21 17:11:00,
2013-01-21 09:12:00,35.4,34.8,30.23,East,90,0.0,0.0,98,0.00,,,0.00,WUHU21636XXSP,2013-01-21 17:12:00,
2013-01-21 09:13:00,35.4,34.8,30.23,East,90,0.0,0.0,98,0.00,,,0.00,WUHU21636XXSP,2013-01-21 17:13:00,
2013-01-21 09:16:00,35.2,34.6,30.23,ENE,67,0.0,0.0,98,0.00,,,0.00,WUHU21636XXSP,2013-01-21 17:16:00,
2013-01-21 09:18:00,35.4,34.8,30.23,NE,45,0.0,0.0,98,0.00,,,0.00,WUHU21636XXSP,2013-01-21 17:18:00,
2013-01-21 09:21:00,35.2,34.6,30.23,NE,45,0.0,0.0,98,0.00,,,0.00,WUHU21636XXSP,2013-01-21 17:21:00,
2013-01-21 09:23:00,35.2,34.6,30.23,NE,45,0.0,0.0,98,0.00,,,0.00,WUHU21636XXSP,2013-01-21 17:23:00,
2013-01-21 09:26:00,35.2,34.6,30.23,NE,45,0.0,0.0,98,0.00,,,0.00,WUHU21636XXSP,2013-01-21 17:26:00,
2013-01-21 09:28:00,35.2,34.6,30.23,NE,45,1.3,1.3,98,0.00,,,0.00,WUHU21636XXSP,2013-01-21 17:28:00,
2013-01-21 09:29:00,35.2,34.6,30.23,NE,45,1.3,1.3,98,0.00,,,0.00,WUHU21636XXSP,2013-01-21 17:29:00,
2013-01-21 09:31:00,35.2,34.6,30.23,NE,45,0.0,1.3,98,0.00,,,0.00,WUHU21636XXSP,2013-01-21 17:31:00,
2013-01-21 09:33:00,35.2,34.6,30.23,NNE,22,0.0,1.3,98,0.00,,,0.00,WUHU21636XXSP,2013-01-21 17:33:00,
2013-01-21 09:34:00,35.2,34.6,30.23,NNE,22,0.0,1.3,98,0.00,,,0.00,WUHU21636XXSP,2013-01-21 17:34:00,
2013-01-21 09:37:00,35.1,34.5,30.23,NNE,22,0.0,1.3,98,0.00,,,0.00,WUHU21636XXSP,2013-01-21 17:37:00,
2013-01-21 09:38:00,35.1,34.5,30.23,NNE,22,0.0,1.3,98,0.00,,,0.00,WUHU21636XXSP,2013-01-21 17:38:00,
2013-01-21 09:39:00,35.2,34.6,30.23,NNE,22,0.0,1.3,98,0.00,,,0.00,WUHU21636XXSP,2013-01-21 17:39:00,
2013-01-21 09:42:00,35.1,34.5,30.23,NNE,22,0.0,0.0,98,0.00,,,0.00,WUHU21636XXSP,2013-01-21 17:42:00,
2013-01-21 09:43:00,35.2,34.6,30.23,SE,135,0.0,0.0,98,0.00,,,0.00,WUHU21636XXSP,2013-01-21 17:43:00,
2013-01-21 09:44:00,35.2,34.6,30.23,SE,135,0.0,0.0,98,0.00,,,0.00,WUHU21636XXSP,2013-01-21 17:44:00,
2013-01-21 09:47:00,35.6,35.0,30.23,SE,135,0.0,0.0,98,0.00,,,0.00,WUHU21636XXSP,2013-01-21 17:47:00,
2013-01-21 09:48:00,35.6,35.0,30.23,SE,135,0.0,0.0,98,0.00,,,0.00,WUHU21636XXSP,2013-01-21 17:48:00,
2013-01-21 09:49:00,35.6,35.0,30.23,SE,135,0.0,0.0,98,0.00,,,0.00,WUHU21636XXSP,2013-01-21 17:49:00,
2013-01-21 09:52:00,35.4,34.8,30.23,SE,135,0.0,0.0,98,0.00,,,0.00,WUHU21636XXSP,2013-01-21 17:52:00,
2013-01-21 09:53:00,35.4,34.8,30.23,SE,135,0.0,0.0,98,0.00,,,0.00,WUHU21636XXSP,2013-01-21 17:53:00,
2013-01-21 09:54:00,35.4,34.8,30.23,SE,135,0.0,0.0,98,0.00,,,0.00,WUHU21636XXSP,2013-01-21 17:54:00,
2013-01-21 09:57:00,35.6,35.0,30.23,SE,135,0.0,0.0,98,0.00,,,0.00,WUHU21636XXSP,2013-01-21 17:57:00,
2013-01-21 09:59:00,35.6,35.0,30.24,SE,135,0.0,0.0,98,0.00,,,0.00,WUHU21636XXSP,2013-01-21 17:59:00,
2013-01-21 10:02:00,36.0,35.4,30.24,SE,135,0.0,0.0,98,0.00,,,0.00,WUHU21636XXSP,2013-01-21 18:02:00,
2013-01-21 10:04:00,36.0,35.4,30.23,SE,135,0.0,0.0,98,0.00,,,0.00,WUHU21636XXSP,2013-01-21 18:04:00,
2013-01-21 10:07:00,36.1,35.5,30.24,SE,135,0.0,0.0,98,0.00,,,0.00,WUHU21636XXSP,2013-01-21 18:07:00,
2013-01-21 10:09:00,36.1,35.5,30.24,SE,135,0.0,0.0,98,0.00,,,0.00,WUHU21636XXSP,2013-01-21 18:09:00,
2013-01-21 10:10:00,36.1,35.5,30.24,SE,135,0.0,0.0,98,0.00,,,0.00,WUHU21636XXSP,2013-01-21 18:10:00,
2013-01-21 10:13:00,35.8,35.2,30.23,SE,135,0.0,0.0,98,0.00,,,0.00,WUHU21636XXSP,2013-01-21 18:13:00,
2013-01-21 10:14:00,35.8,35.2,30.23,SE,135,0.0,0.0,98,0.00,,,0.00,WUHU21636XXSP,2013-01-21 18:14:00,
2013-01-21 10:15:00,35.8,35.2,30.24,SE,135,0.0,0.0,98,0.00,,,0.00,WUHU21636XXSP,2013-01-21 18:15:00,
2013-01-21 10:18:00,35.8,35.2,30.24,SE,135,0.0,0.0,98,0.00,,,0.00,WUHU21636XXSP,2013-01-21 18:18:00,
2013-01-21 10:19:00,35.8,35.2,30.24,SE,135,0.0,0.0,98,0.00,,,0.00,WUHU21636XXSP,2013-01-21 18:19:00,
2013-01-21 10:20:00,35.8,35.2,30.24,SE,135,0.0,0.0,98,0.00,,,0.00,WUHU21636XXSP,2013-01-21 18:20:00,
2013-01-21 10:23:00,35.8,35.2,30.24,SE,135,0.0,0.0,98,0.00,,,0.00,WUHU21636XXSP,2013-01-21 18:23:00,
2013-01-21 10:24:00,35.8,35.2,30.24,SE,135,0.0,0.0,98,0.00,,,0.00,WUHU21636XXSP,2013-01-21 18:24:00,
2013-01-21 10:25:00,35.8,35.2,30.24,SE,135,0.0,0.0,98,0.00,,,0.00,WUHU21636XXSP,2013-01-21 18:25:00,
2013-01-21 10:29:00,35.8,35.2,30.24,SE,135,0.0,0.0,98,0.00,,,0.00,WUHU21636XXSP,2013-01-21 18:29:00,
2013-01-21 10:30:00,35.8,35.2,30.24,SSE,157,0.0,0.0,98,0.00,,,0.00,WUHU21636XXSP,2013-01-21 18:30:00,
2013-01-21 10:34:00,35.8,35.2,30.24,SSE,157,0.0,0.0,98,0.00,,,0.00,WUHU21636XXSP,2013-01-21 18:34:00,
2013-01-21 10:35:00,35.8,35.2,30.24,SSE,157,0.0,0.0,98,0.00,,,0.00,WUHU21636XXSP,2013-01-21 18:35:00,
2013-01-21 10:36:00,35.8,35.2,30.24,SSE,157,0.0,0.0,98,0.00,,,0.00,WUHU21636XXSP,2013-01-21 18:36:00,
2013-01-21 10:39:00,35.6,35.0,30.24,SSE,157,0.0,0.0,98,0.00,,,0.00,WUHU21636XXSP,2013-01-21 18:39:00,
2013-01-21 10:40:00,35.6,35.0,30.24,SSE,157,0.0,0.0,98,0.00,,,0.00,WUHU21636XXSP,2013-01-21 18:40:00,
2013-01-21 10:41:00,35.4,34.8,30.24,SSE,157,0.0,0.0,98,0.00,,,0.00,WUHU21636XXSP,2013-01-21 18:41:00,
2013-01-21 10:44:00,35.4,34.8,30.24,SSE,157,0.0,0.0,98,0.00,,,0.00,WUHU21636XXSP,2013-01-21 18:44:00,
2013-01-21 10:45:00,35.4,34.8,30.23,SSE,157,0.0,0.0,98,0.00,,,0.00,WUHU21636XXSP,2013-01-21 18:45:00,
2013-01-21 10:47:00,35.4,34.8,30.24,SSE,157,0.0,0.0,98,0.00,,,0.00,WUHU21636XXSP,2013-01-21 18:47:00,
2013-01-21 10:49:00,35.6,35.0,30.23,SSE,157,0.0,0.0,98,0.00,,,0.00,WUHU21636XXSP,2013-01-21 18:49:00,
2013-01-21 10:50:00,35.6,35.0,30.24,SSE,157,0.0,0.0,98,0.00,,,0.00,WUHU21636XXSP,2013-01-21 18:50:00,
2013-01-21 10:52:00,35.8,35.2,30.24,SSE,157,0.0,0.0,98,0.00,,,0.00,WUHU21636XXSP,2013-01-21 18:52:00,
2013-01-21 10:54:00,35.8,35.2,30.24,SSE,157,0.0,0.0,98,0.00,,,0.00,WUHU21636XXSP,2013-01-21 18:54:00,
2013-01-21 10:55:00,35.8,35.2,30.24,SSE,157,0.0,0.0,98,0.00,,,0.00,WUHU21636XXSP,2013-01-21 18:55:00,
2013-01-21 10:57:00,35.8,35.2,30.24,SSE,157,0.0,0.0,98,0.00,,,0.00,WUHU21636XXSP,2013-01-21 18:57:00,
2013-01-21 11:00:00,35.6,35.0,30.24,SSE,157,0.0,0.0,98,0.00,,,0.00,WUHU21636XXSP,2013-01-21 19:00:00,
2013-01-21 11:01:00,35.8,35.2,30.24,SSE,157,0.0,0.0,98,0.00,,,0.00,WUHU21636XXSP,2013-01-21 19:01:00,
2013-01-21 11:02:00,35.8,35.2,30.24,SSE,157,0.0,0.0,98,0.00,,,0.00,WUHU21636XXSP,2013-01-21 19:02:00,
2013-01-21 11:05:00,35.8,35.2,30.24,SSE,157,1.5,1.5,98,0.00,,,0.00,WUHU21636XXSP,2013-01-21 19:05:00,
2013-01-21 11:06:00,35.8,35.2,30.24,SSE,157,1.5,1.5,98,0.00,,,0.00,WUHU21636XXSP,2013-01-21 19:06:00,
2013-01-21 11:07:00,35.6,35.0,30.24,SSE,157,1.5,1.5,98,0.00,,,0.00,WUHU21636XXSP,2013-01-21 19:07:00,
2013-01-21 11:10:00,35.6,35.0,30.23,SSE,157,0.0,1.5,98,0.00,,,0.00,WUHU21636XXSP,2013-01-21 19:10:00,
2013-01-21 11:11:00,35.6,35.0,30.23,SSE,157,0.0,1.5,98,0.00,,,0.00,WUHU21636XXSP,2013-01-21 19:11:00,
2013-01-21 11:12:00,35.6,35.0,30.23,SSE,157,0.0,1.5,98,0.00,,,0.00,WUHU21636XXSP,2013-01-21 19:12:00,
2013-01-21 11:15:00,35.6,35.0,30.23,SSE,157,0.0,1.5,98,0.00,,,0.00,WUHU21636XXSP,2013-01-21 19:15:00,
2013-01-21 11:16:00,35.8,35.2,30.23,SSE,157,0.0,1.5,98,0.00,,,0.00,WUHU21636XXSP,2013-01-21 19:16:00,
2013-01-21 11:17:00,35.8,35.2,30.23,SSE,157,0.0,0.0,98,0.00,,,0.00,WUHU21636XXSP,2013-01-21 19:17:00,
2013-01-21 11:18:00,35.8,35.2,30.23,SSE,157,0.0,0.0,98,0.00,,,0.00,WUHU21636XXSP,2013-01-21 19:18:00,
2013-01-21 11:20:00,35.8,35.2,30.23,SSE,157,0.0,0.0,98,0.00,,,0.00,WUHU21636XXSP,2013-01-21 19:20:00,
2013-01-21 11:21:00,35.8,35.2,30.23,SSE,157,0.0,0.0,98,0.00,,,0.00,WUHU21636XXSP,2013-01-21 19:21:00,
2013-01-21 11:22:00,35.8,35.2,30.23,SSE,157,0.0,0.0,98,0.00,,,0.00,WUHU21636XXSP,2013-01-21 19:22:00,
2013-01-21 11:23:00,35.8,35.2,30.23,SSE,157,0.0,0.0,98,0.00,,,0.00,WUHU21636XXSP,2013-01-21 19:23:00,
2013-01-21 11:25:00,36.0,35.4,30.23,SSE,157,0.0,0.0,98,0.00,,,0.00,WUHU21636XXSP,2013-01-21 19:25:00,
2013-01-21 11:26:00,36.0,35.4,30.23,SSE,157,0.0,0.0,98,0.00,,,0.00,WUHU21636XXSP,2013-01-21 19:26:00,
2013-01-21 11:27:00,36.0,35.4,30.23,SSE,157,0.0,0.0,98,0.00,,,0.00,WUHU21636XXSP,2013-01-21 19:27:00,
2013-01-21 11:28:00,36.0,35.2,30.23,SSE,157,0.0,0.0,97,0.00,,,0.00,WUHU21636XXSP,2013-01-21 19:28:00,
2013-01-21 11:30:00,36.0,35.2,30.23,SSE,157,0.0,0.0,97,0.00,,,0.00,WUHU21636XXSP,2013-01-21 19:30:00,
2013-01-21 11:31:00,35.8,35.0,30.23,SSE,157,0.0,0.0,97,0.00,,,0.00,WUHU21636XXSP,2013-01-21 19:31:00,
2013-01-21 11:32:00,35.8,35.0,30.23,SSE,157,0.0,0.0,97,0.00,,,0.00,WUHU21636XXSP,2013-01-21 19:32:00,
2013-01-21 11:33:00,35.8,35.0,30.23,SSE,157,0.0,0.0,97,0.00,,,0.00,WUHU21636XXSP,2013-01-21 19:33:00,
2013-01-21 11:35:00,36.0,35.2,30.23,SSE,157,0.0,0.0,97,0.00,,,0.00,WUHU21636XXSP,2013-01-21 19:35:00,
2013-01-21 11:36:00,36.0,35.2,30.23,SSE,157,0.0,0.0,97,0.00,,,0.00,WUHU21636XXSP,2013-01-21 19:36:00,
2013-01-21 11:37:00,36.0,35.2,30.23,SSE,157,0.0,0.0,97,0.00,,,0.00,WUHU21636XXSP,2013-01-21 19:37:00,
2013-01-21 11:38:00,36.0,35.2,30.23,SSE,157,0.0,0.0,97,0.00,,,0.00,WUHU21636XXSP,2013-01-21 19:38:00,
2013-01-21 11:40:00,35.8,35.0,30.23,NNE,22,0.0,0.0,97,0.00,,,0.00,WUHU21636XXSP,2013-01-21 19:40:00,
2013-01-21 11:41:00,36.0,35.2,30.23,NNE,22,0.0,0.0,97,0.00,,,0.00,WUHU21636XXSP,2013-01-21 19:41:00,
2013-01-21 11:42:00,36.0,35.2,30.23,NNE,22,0.0,0.0,97,0.00,,,0.00,WUHU21636XXSP,2013-01-21 19:42:00,
2013-01-21 11:43:00,35.8,35.0,30.23,NNE,22,0.0,0.0,97,0.00,,,0.00,WUHU21636XXSP,2013-01-21 19:43:00,
2013-01-21 11:45:00,36.0,35.2,30.23,NNE,22,0.0,0.0,97,0.00,,,0.00,WUHU21636XXSP,2013-01-21 19:45:00,
2013-01-21 11:47:00,36.0,35.2,30.22,NNE,22,0.0,0.0,97,0.00,,,0.00,WUHU21636XXSP,2013-01-21 19:47:00,
2013-01-21 11:48:00,35.8,35.0,30.22,North,0,0.0,0.0,97,0.00,,,0.00,WUHU21636XXSP,2013-01-21 19:48:00,
2013-01-21 11:50:00,36.0,35.2,30.22,North,0,0.0,0.0,97,0.00,,,0.00,WUHU21636XXSP,2013-01-21 19:50:00,
2013-01-21 11:52:00,35.8,35.0,30.22,North,0,0.0,0.0,97,0.00,,,0.00,WUHU21636XXSP,2013-01-21 19:52:00,
2013-01-21 11:54:00,35.8,35.0,30.22,North,0,0.0,0.0,97,0.00,,,0.00,WUHU21636XXSP,2013-01-21 19:54:00,
2013-01-21 11:55:00,36.1,35.3,30.22,North,0,0.0,0.0,97,0.00,,,0.00,WUHU21636XXSP,2013-01-21 19:55:00,
2013-01-21 11:57:00,36.0,35.2,30.22,North,0,0.0,0.0,97,0.00,,,0.00,WUHU21636XXSP,2013-01-21 19:57:00,
2013-01-21 11:59:00,36.1,35.3,30.22,North,0,0.0,0.0,97,0.00,,,0.00,WUHU21636XXSP,2013-01-21 19:59:00,
2013-01-21 12:01:00,36.1,35.3,30.22,North,0,0.0,0.0,97,0.00,,,0.00,WUHU21636XXSP,2013-01-21 20:01:00,
2013-01-21 12:02:00,36.1,35.3,30.22,North,0,0.0,0.0,97,0.00,,,0.00,WUHU21636XXSP,2013-01-21 20:02:00,
2013-01-21 12:03:00,36.1,35.3,30.22,North,0,0.0,0.0,97,0.00,,,0.00,WUHU21636XXSP,2013-01-21 20:03:00,
2013-01-21 12:04:00,36.1,35.3,30.22,North,0,0.0,0.0,97,0.00,,,0.00,WUHU21636XXSP,2013-01-21 20:04:00,
2013-01-21 12:06:00,36.3,35.5,30.22,North,0,0.0,0.0,97,0.00,,,0.00,WUHU21636XXSP,2013-01-21 20:06:00,
2013-01-21 12:07:00,36.3,35.5,30.22,North,0,0.0,0.0,97,0.00,,,0.00,WUHU21636XXSP,2013-01-21 20:07:00,
2013-01-21 12:08:00,36.3,35.5,30.22,North,0,0.0,0.0,97,0.00,,,0.00,WUHU21636XXSP,2013-01-21 20:08:00,
2013-01-21 12:09:00,36.3,35.5,30.22,NE,45,0.0,0.0,97,0.00,,,0.00,WUHU21636XXSP,2013-01-21 20:09:00,
2013-01-21 12:11:00,36.1,35.3,30.22,NE,45,0.0,0.0,97,0.00,,,0.00,WUHU21636XXSP,2013-01-21 20:11:00,
2013-01-21 12:12:00,36.1,35.3,30.22,NE,45,0.0,0.0,97,0.00,,,0.00,WUHU21636XXSP,2013-01-21 20:12:00,
2013-01-21 12:13:00,36.1,35.3,30.22,NE,45,0.0,0.0,97,0.00,,,0.00,WUHU21636XXSP,2013-01-21 20:13:00,
2013-01-21 12:14:00,36.1,35.3,30.22,NE,45,0.0,0.0,97,0.00,,,0.00,WUHU21636XXSP,2013-01-21 20:14:00,
2013-01-21 12:16:00,36.1,35.3,30.22,NE,45,0.0,0.0,97,0.00,,,0.00,WUHU21636XXSP,2013-01-21 20:16:00,
2013-01-21 12:17:00,36.1,35.3,30.22,NE,45,0.0,0.0,97,0.00,,,0.00,WUHU21636XXSP,2013-01-21 20:17:00,
2013-01-21 12:18:00,36.1,35.3,30.22,NE,45,0.0,0.0,97,0.00,,,0.00,WUHU21636XXSP,2013-01-21 20:18:00,
2013-01-21 12:19:00,36.1,35.3,30.22,NE,45,0.0,0.0,97,0.00,,,0.00,WUHU21636XXSP,2013-01-21 20:19:00,
2013-01-21 12:21:00,36.3,35.5,30.22,NNE,22,0.0,0.0,97,0.00,,,0.00,WUHU21636XXSP,2013-01-21 20:21:00,
2013-01-21 12:22:00,36.3,35.5,30.22,NE,45,0.0,0.0,97,0.00,,,0.00,WUHU21636XXSP,2013-01-21 20:22:00,
2013-01-21 12:23:00,36.3,35.5,30.22,NE,45,0.0,0.0,97,0.00,,,0.00,WUHU21636XXSP,2013-01-21 20:23:00,
2013-01-21 12:24:00,36.3,35.5,30.22,NE,45,0.0,0.0,97,0.00,,,0.00,WUHU21636XXSP,2013-01-21 20:24:00,
2013-01-21 12:26:00,36.1,35.3,30.22,NE,45,0.0,0.0,97,0.00,,,0.00,WUHU21636XXSP,2013-01-21 20:26:00,
2013-01-21 12:27:00,36.1,35.3,30.22,NE,45,0.0,0.0,97,0.00,,,0.00,WUHU21636XXSP,2013-01-21 20:27:00,
2013-01-21 12:28:00,36.3,35.5,30.22,ENE,67,0.0,0.0,97,0.00,,,0.00,WUHU21636XXSP,2013-01-21 20:28:00,
2013-01-21 12:29:00,36.3,35.5,30.22,ENE,67,0.0,0.0,97,0.00,,,0.00,WUHU21636XXSP,2013-01-21 20:29:00,
2013-01-21 12:31:00,36.7,35.8,30.22,ENE,67,0.0,0.0,97,0.00,,,0.00,WUHU21636XXSP,2013-01-21 20:31:00,
2013-01-21 12:33:00,36.7,35.8,30.22,ENE,67,0.0,0.0,97,0.00,,,0.00,WUHU21636XXSP,2013-01-21 20:33:00,
2013-01-21 12:35:00,36.7,35.8,30.22,ENE,67,0.0,0.0,97,0.00,,,0.00,WUHU21636XXSP,2013-01-21 20:35:00,
2013-01-21 12:37:00,36.7,35.8,30.22,ENE,67,0.0,0.0,97,0.00,,,0.00,WUHU21636XXSP,2013-01-21 20:37:00,
2013-01-21 12:38:00,36.7,35.8,30.22,ENE,67,0.0,0.0,97,0.00,,,0.00,WUHU21636XXSP,2013-01-21 20:38:00,
2013-01-21 12:40:00,36.7,35.6,30.22,ENE,67,0.0,0.0,96,0.00,,,0.00,WUHU21636XXSP,2013-01-21 20:40:00,
2013-01-21 12:42:00,36.7,35.6,30.22,ENE,67,0.0,0.0,96,0.00,,,0.00,WUHU21636XXSP,2013-01-21 20:42:00,
2013-01-21 12:43:00,36.7,35.6,30.22,ENE,67,0.0,0.0,96,0.00,,,0.00,WUHU21636XXSP,2013-01-21 20:43:00,
2013-01-21 12:45:00,36.7,35.6,30.22,ENE,67,0.0,0.0,96,0.00,,,0.00,WUHU21636XXSP,2013-01-21 20:45:00,
2013-01-21 12:47:00,36.7,35.6,30.22,East,90,0.0,0.0,96,0.00,,,0.00,WUHU21636XXSP,2013-01-21 20:47:00,
2013-01-21 12:48:00,36.7,35.6,30.22,North,0,5.1,5.1,96,0.00,,,0.00,WUHU21636XXSP,2013-01-21 20:48:00,
2013-01-21 12:50:00,36.7,35.6,30.21,North,0,4.1,5.1,96,0.00,,,0.00,WUHU21636XXSP,2013-01-21 20:50:00,
2013-01-21 12:52:00,36.7,35.6,30.21,North,0,2.6,5.1,96,0.00,,,0.00,WUHU21636XXSP,2013-01-21 20:52:00,
2013-01-21 12:53:00,36.7,35.6,30.21,North,0,2.6,5.1,96,0.00,,,0.00,WUHU21636XXSP,2013-01-21 20:53:00,
2013-01-21 12:55:00,36.7,35.6,30.21,NNE,22,2.6,5.1,96,0.00,,,0.00,WUHU21636XXSP,2013-01-21 20:55:00,
2013-01-21 12:57:00,36.7,35.6,30.21,NNE,22,2.6,5.1,96,0.00,,,0.00,WUHU21636XXSP,2013-01-21 20:57:00,
2013-01-21 12:58:00,36.7,35.6,30.21,NNE,22,2.6,5.1,96,0.00,,,0.00,WUHU21636XXSP,2013-01-21 20:58:00,
2013-01-21 13:00:00,36.7,35.6,30.21,NNE,22,0.0,2.6,96,0.00,,,0.00,WUHU21636XXSP,2013-01-21 21:00:00,
2013-01-21 13:02:00,36.7,35.6,30.20,NNE,22,0.0,2.6,96,0.00,,,0.00,WUHU21636XXSP,2013-01-21 21:02:00,
2013-01-21 13:03:00,36.7,35.6,30.21,NNE,22,0.0,2.6,96,0.00,,,0.00,WUHU21636XXSP,2013-01-21 21:03:00,
2013-01-21 13:05:00,36.7,35.6,30.21,NNE,22,0.0,2.6,96,0.00,,,0.00,WUHU21636XXSP,2013-01-21 21:05:00,
2013-01-21 13:06:00,36.7,35.6,30.21,NNE,22,0.0,0.0,96,0.00,,,0.00,WUHU21636XXSP,2013-01-21 21:06:00,
2013-01-21 13:07:00,36.7,35.6,30.21,ENE,67,1.3,1.3,96,0.00,,,0.00,WUHU21636XXSP,2013-01-21 21:07:00,
2013-01-21 13:09:00,36.7,35.6,30.21,ENE,67,1.3,1.3,96,0.00,,,0.00,WUHU21636XXSP,2013-01-21 21:09:00,
2013-01-21 13:10:00,36.7,35.6,30.21,ENE,67,1.3,1.3,96,0.00,,,0.00,WUHU21636XXSP,2013-01-21 21:10:00,
2013-01-21 13:11:00,36.7,35.6,30.20,ESE,112,0.0,1.3,96,0.00,,,0.00,WUHU21636XXSP,2013-01-21 21:11:00,
2013-01-21 13:12:00,36.7,35.6,30.20,ESE,112,0.0,1.3,96,0.00,,,0.00,WUHU21636XXSP,2013-01-21 21:12:00,
2013-01-21 13:14:00,36.9,35.8,30.20,ESE,112,0.0,1.3,96,0.00,,,0.00,WUHU21636XXSP,2013-01-21 21:14:00,
2013-01-21 13:15:00,36.9,35.8,30.20,ESE,112,0.0,1.3,96,0.00,,,0.00,WUHU21636XXSP,2013-01-21 21:15:00,
2013-01-21 13:16:00,37.0,35.9,30.20,NNE,22,0.0,1.3,96,0.00,,,0.00,WUHU21636XXSP,2013-01-21 21:16:00,
2013-01-21 13:18:00,37.0,35.9,30.20,NNE,22,0.0,1.3,96,0.00,,,0.00,WUHU21636XXSP,2013-01-21 21:18:00,
2013-01-21 13:19:00,37.0,35.9,30.20,NNE,22,0.0,0.0,96,0.00,,,0.00,WUHU21636XXSP,2013-01-21 21:19:00,
2013-01-21 13:20:00,37.0,35.9,30.20,NNE,22,0.0,0.0,96,0.00,,,0.00,WUHU21636XXSP,2013-01-21 21:20:00,
2013-01-21 13:21:00,37.0,35.9,30.20,NNE,22,0.0,0.0,96,0.00,,,0.00,WUHU21636XXSP,2013-01-21 21:21:00,
2013-01-21 13:23:00,37.0,35.9,30.20,NE,45,0.0,0.0,96,0.00,,,0.00,WUHU21636XXSP,2013-01-21 21:23:00,
2013-01-21 13:24:00,37.0,35.9,30.20,NE,45,0.0,0.0,96,0.00,,,0.00,WUHU21636XXSP,2013-01-21 21:24:00,
2013-01-21 13:25:00,37.0,35.9,30.20,NE,45,0.0,0.0,96,0.00,,,0.00,WUHU21636XXSP,2013-01-21 21:25:00,
2013-01-21 13:26:00,36.7,35.3,30.20,ENE,67,0.0,0.0,95,0.00,,,0.00,WUHU21636XXSP,2013-01-21 21:26:00,
2013-01-21 13:28:00,36.7,35.3,30.20,ENE,67,0.0,0.0,95,0.00,,,0.00,WUHU21636XXSP,2013-01-21 21:28:00,
2013-01-21 13:30:00,36.9,35.8,30.20,ENE,67,0.0,0.0,96,0.00,,,0.00,WUHU21636XXSP,2013-01-21 21:30:00,
2013-01-21 13:31:00,36.9,35.8,30.20,ENE,67,0.0,0.0,96,0.00,,,0.00,WUHU21636XXSP,2013-01-21 21:31:00,
2013-01-21 13:33:00,36.9,35.8,30.20,NNW,337,3.1,3.1,96,0.00,,,0.00,WUHU21636XXSP,2013-01-21 21:33:00,
2013-01-21 13:35:00,36.7,35.3,30.20,NNE,22,0.0,3.1,95,0.00,,,0.00,WUHU21636XXSP,2013-01-21 21:35:00,
2013-01-21 13:36:00,36.7,35.3,30.20,NNE,22,0.0,3.1,95,0.00,,,0.00,WUHU21636XXSP,2013-01-21 21:36:00,
2013-01-21 13:37:00,36.7,35.3,30.20,NNE,22,0.0,3.1,95,0.00,,,0.00,WUHU21636XXSP,2013-01-21 21:37:00,
2013-01-21 13:38:00,36.7,35.3,30.20,NNE,22,0.0,3.1,95,0.00,,,0.00,WUHU21636XXSP,2013-01-21 21:38:00,
2013-01-21 13:40:00,36.7,35.3,30.20,NNE,22,0.0,3.1,95,0.00,,,0.00,WUHU21636XXSP,2013-01-21 21:40:00,
2013-01-21 13:41:00,36.7,35.3,30.19,NNE,22,0.0,3.1,95,0.00,,,0.00,WUHU21636XXSP,2013-01-21 21:41:00,
2013-01-21 13:42:00,36.7,35.3,30.19,NNE,22,0.0,3.1,95,0.00,,,0.00,WUHU21636XXSP,2013-01-21 21:42:00,
2013-01-21 13:43:00,36.7,35.3,30.20,NNE,22,0.0,0.0,95,0.00,,,0.00,WUHU21636XXSP,2013-01-21 21:43:00,
2013-01-21 13:45:00,36.7,35.3,30.19,NNE,22,0.0,0.0,95,0.00,,,0.00,WUHU21636XXSP,2013-01-21 21:45:00,
2013-01-21 13:46:00,36.7,35.3,30.19,NNE,22,0.0,0.0,95,0.00,,,0.00,WUHU21636XXSP,2013-01-21 21:46:00,
2013-01-21 13:47:00,36.7,35.3,30.19,NNE,22,0.0,0.0,95,0.00,,,0.00,WUHU21636XXSP,2013-01-21 21:47:00,
2013-01-21 13:48:00,36.7,35.3,30.19,NNE,22,0.0,0.0,95,0.00,,,0.00,WUHU21636XXSP,2013-01-21 21:48:00,
2013-01-21 13:50:00,36.7,35.3,30.19,NNE,22,0.0,0.0,95,0.00,,,0.00,WUHU21636XXSP,2013-01-21 21:50:00,
2013-01-21 13:51:00,36.7,35.3,30.19,NNE,22,0.0,0.0,95,0.00,,,0.00,WUHU21636XXSP,2013-01-21 21:51:00,
2013-01-21 13:52:00,36.7,35.3,30.19,NNE,22,0.0,0.0,95,0.00,,,0.00,WUHU21636XXSP,2013-01-21 21:52:00,
2013-01-21 13:53:00,36.7,35.3,30.19,NNE,22,0.0,0.0,95,0.00,,,0.00,WUHU21636XXSP,2013-01-21 21:53:00,
2013-01-21 13:55:00,36.9,35.8,30.19,NNE,22,0.0,0.0,96,0.00,,,0.00,WUHU21636XXSP,2013-01-21 21:55:00,
2013-01-21 13:56:00,36.9,35.8,30.19,NNE,22,0.0,0.0,96,0.00,,,0.00,WUHU21636XXSP,2013-01-21 21:56:00,
2013-01-21 13:57:00,37.0,35.9,30.19,NNE,22,0.0,0.0,96,0.00,,,0.00,WUHU21636XXSP,2013-01-21 21:57:00,
2013-01-21 13:58:00,37.0,35.9,30.18,NNE,22,0.0,0.0,96,0.00,,,0.00,WUHU21636XXSP,2013-01-21 21:58:00,
2013-01-21 14:00:00,37.0,35.9,30.19,NNE,22,0.0,0.0,96,0.00,,,0.00,WUHU21636XXSP,2013-01-21 22:00:00,
2013-01-21 14:02:00,37.0,35.9,30.19,NNE,22,0.0,0.0,96,0.00,,,0.00,WUHU21636XXSP,2013-01-21 22:02:00,
2013-01-21 14:04:00,37.0,35.9,30.19,NNE,22,0.0,0.0,96,0.00,,,0.00,WUHU21636XXSP,2013-01-21 22:04:00,
2013-01-21 14:05:00,37.0,35.9,30.19,NNE,22,0.0,0.0,96,0.00,,,0.00,WUHU21636XXSP,2013-01-21 22:05:00,
2013-01-21 14:07:00,37.0,35.9,30.19,NNE,22,0.0,0.0,96,0.00,,,0.00,WUHU21636XXSP,2013-01-21 22:07:00,
2013-01-21 14:09:00,37.0,35.9,30.18,NNE,22,0.0,0.0,96,0.00,,,0.00,WUHU21636XXSP,2013-01-21 22:09:00,
2013-01-21 14:11:00,37.2,36.1,30.18,NNE,22,0.0,0.0,96,0.00,,,0.00,WUHU21636XXSP,2013-01-21 22:11:00,
2013-01-21 14:12:00,37.2,36.1,30.18,ESE,112,0.0,0.0,96,0.00,,,0.00,WUHU21636XXSP,2013-01-21 22:12:00,
2013-01-21 14:14:00,37.2,35.8,30.18,ESE,112,0.0,0.0,95,0.00,,,0.00,WUHU21636XXSP,2013-01-21 22:14:00,
2013-01-21 14:16:00,37.2,35.8,30.18,ESE,112,0.0,0.0,95,0.00,,,0.00,WUHU21636XXSP,2013-01-21 22:16:00,
2013-01-21 14:17:00,37.2,35.8,30.18,ESE,112,0.0,0.0,95,0.00,,,0.00,WUHU21636XXSP,2013-01-21 22:17:00,
2013-01-21 14:19:00,37.2,35.8,30.18,East,90,0.0,0.0,95,0.00,,,0.00,WUHU21636XXSP,2013-01-21 22:19:00,
2013-01-21 14:21:00,37.2,35.8,30.18,East,90,0.0,0.0,95,0.00,,,0.00,WUHU21636XXSP,2013-01-21 22:21:00,
2013-01-21 14:22:00,37.2,35.8,30.18,East,90,0.0,0.0,95,0.00,,,0.00,WUHU21636XXSP,2013-01-21 22:22:00,
2013-01-21 14:23:00,37.2,36.1,30.18,East,90,0.0,0.0,96,0.00,,,0.00,WUHU21636XXSP,2013-01-21 22:23:00,
2013-01-21 14:24:00,37.2,36.1,30.18,East,90,0.0,0.0,96,0.00,,,0.00,WUHU21636XXSP,2013-01-21 22:24:00,
2013-01-21 14:26:00,37.2,35.8,30.18,East,90,0.0,0.0,95,0.00,,,0.00,WUHU21636XXSP,2013-01-21 22:26:00,
2013-01-21 14:27:00,37.2,35.8,30.18,East,90,0.0,0.0,95,0.00,,,0.00,WUHU21636XXSP,2013-01-21 22:27:00,
2013-01-21 14:28:00,37.2,35.8,30.18,East,90,0.0,0.0,95,0.00,,,0.00,WUHU21636XXSP,2013-01-21 22:28:00,
2013-01-21 14:29:00,37.0,35.6,30.18,East,90,0.0,0.0,95,0.00,,,0.00,WUHU21636XXSP,2013-01-21 22:29:00,
2013-01-21 14:31:00,37.2,35.8,30.18,East,90,0.0,0.0,95,0.00,,,0.00,WUHU21636XXSP,2013-01-21 22:31:00,
2013-01-21 14:33:00,37.2,35.8,30.17,East,90,0.0,0.0,95,0.00,,,0.00,WUHU21636XXSP,2013-01-21 22:33:00,
2013-01-21 14:34:00,37.2,35.8,30.18,East,90,0.0,0.0,95,0.00,,,0.00,WUHU21636XXSP,2013-01-21 22:34:00,
2013-01-21 14:37:00,37.2,35.8,30.17,East,90,0.0,0.0,95,0.00,,,0.00,WUHU21636XXSP,2013-01-21 22:37:00,
2013-01-21 14:38:00,37.0,35.6,30.17,East,90,0.0,0.0,95,0.00,,,0.00,WUHU21636XXSP,2013-01-21 22:38:00,
2013-01-21 14:39:00,37.0,35.6,30.17,East,90,0.0,0.0,95,0.00,,,0.00,WUHU21636XXSP,2013-01-21 22:39:00,
2013-01-21 14:42:00,37.0,35.6,30.17,East,90,0.0,0.0,95,0.00,,,0.00,WUHU21636XXSP,2013-01-21 22:42:00,
2013-01-21 14:43:00,37.0,35.6,30.18,ENE,67,0.0,0.0,95,0.00,,,0.00,WUHU21636XXSP,2013-01-21 22:43:00,
2013-01-21 14:45:00,37.0,35.6,30.17,East,90,0.0,0.0,95,0.00,,,0.00,WUHU21636XXSP,2013-01-21 22:45:00,
2013-01-21 14:47:00,37.0,35.6,30.17,ESE,112,0.2,0.2,95,0.00,,,0.00,WUHU21636XXSP,2013-01-21 22:47:00,
2013-01-21 14:48:00,37.0,35.6,30.17,ESE,112,0.2,0.2,95,0.00,,,0.00,WUHU21636XXSP,2013-01-21 22:48:00,
2013-01-21 14:50:00,37.0,35.6,30.17,ESE,112,0.2,0.2,95,0.00,,,0.00,WUHU21636XXSP,2013-01-21 22:50:00,
2013-01-21 14:52:00,37.0,35.6,30.17,ESE,112,0.0,0.2,95,0.00,,,0.00,WUHU21636XXSP,2013-01-21 22:52:00,
2013-01-21 14:53:00,37.0,35.6,30.17,ESE,112,0.0,0.2,95,0.00,,,0.00,WUHU21636XXSP,2013-01-21 22:53:00,
2013-01-21 14:55:00,37.0,35.6,30.17,ESE,112,0.0,0.2,95,0.00,,,0.00,WUHU21636XXSP,2013-01-21 22:55:00,
2013-01-21 14:57:00,37.0,35.6,30.17,ESE,112,0.0,0.2,95,0.00,,,0.00,WUHU21636XXSP,2013-01-21 22:57:00,
2013-01-21 14:58:00,37.0,35.6,30.17,ESE,112,0.0,0.0,95,0.00,,,0.00,WUHU21636XXSP,2013-01-21 22:58:00,
2013-01-21 14:59:00,37.0,35.6,30.17,ESE,112,0.0,0.0,95,0.00,,,0.00,WUHU21636XXSP,2013-01-21 22:59:00,
2013-01-21 15:01:00,37.0,35.6,30.17,ESE,112,0.0,0.0,95,0.00,,,0.00,WUHU21636XXSP,2013-01-21 23:01:00,
2013-01-21 15:02:00,37.0,35.6,30.17,ESE,112,0.0,0.0,95,0.00,,,0.00,WUHU21636XXSP,2013-01-21 23:02:00,
2013-01-21 15:03:00,37.0,35.6,30.17,ESE,112,0.0,0.0,95,0.00,,,0.00,WUHU21636XXSP,2013-01-21 23:03:00,
2013-01-21 15:04:00,37.0,35.6,30.17,ESE,112,0.0,0.0,95,0.00,,,0.00,WUHU21636XXSP,2013-01-21 23:04:00,
2013-01-21 15:06:00,37.0,35.6,30.17,ESE,112,0.0,0.0,95,0.00,,,0.00,WUHU21636XXSP,2013-01-21 23:06:00,
2013-01-21 15:07:00,37.0,35.6,30.17,ESE,112,0.0,0.0,95,0.00,,,0.00,WUHU21636XXSP,2013-01-21 23:07:00,
2013-01-21 15:09:00,37.0,35.6,30.17,ESE,112,0.0,0.0,95,0.00,,,0.00,WUHU21636XXSP,2013-01-21 23:09:00,
2013-01-21 15:11:00,37.0,35.6,30.17,ESE,112,0.0,0.0,95,0.00,,,0.00,WUHU21636XXSP,2013-01-21 23:11:00,
2013-01-21 15:12:00,37.0,35.6,30.17,ESE,112,0.0,0.0,95,0.00,,,0.00,WUHU21636XXSP,2013-01-21 23:12:00,
2013-01-21 15:14:00,37.0,35.6,30.17,ESE,112,0.0,0.0,95,0.00,,,0.00,WUHU21636XXSP,2013-01-21 23:14:00,
2013-01-21 15:16:00,37.0,35.6,30.17,ESE,112,0.0,0.0,95,0.00,,,0.00,WUHU21636XXSP,2013-01-21 23:16:00,
2013-01-21 15:17:00,37.0,35.6,30.17,SE,135,0.0,0.0,95,0.00,,,0.00,WUHU21636XXSP,2013-01-21 23:17:00,
2013-01-21 15:19:00,37.0,35.6,30.17,SE,135,0.0,0.0,95,0.00,,,0.00,WUHU21636XXSP,2013-01-21 23:19:00,
2013-01-21 15:21:00,36.7,35.3,30.17,South,180,1.1,1.1,95,0.00,,,0.00,WUHU21636XXSP,2013-01-21 23:21:00,
2013-01-21 15:22:00,36.7,35.3,30.17,South,180,1.1,1.1,95,0.00,,,0.00,WUHU21636XXSP,2013-01-21 23:22:00,
2013-01-21 15:24:00,37.0,35.6,30.17,South,180,1.1,1.1,95,0.00,,,0.00,WUHU21636XXSP,2013-01-21 23:24:00,
2013-01-21 15:25:00,37.0,35.6,30.17,South,180,0.0,1.1,95,0.00,,,0.00,WUHU21636XXSP,2013-01-21 23:25:00,
2013-01-21 15:26:00,37.0,35.6,30.17,SSW,202,1.3,1.3,95,0.00,,,0.00,WUHU21636XXSP,2013-01-21 23:26:00,
2013-01-21 15:28:00,37.2,35.8,30.17,SSW,202,1.3,1.3,95,0.00,,,0.00,WUHU21636XXSP,2013-01-21 23:28:00,
2013-01-21 15:30:00,37.0,35.3,30.17,SSW,202,0.0,1.3,94,0.00,,,0.00,WUHU21636XXSP,2013-01-21 23:30:00,
2013-01-21 15:31:00,37.0,35.3,30.17,SSW,202,0.0,1.3,94,0.00,,,0.00,WUHU21636XXSP,2013-01-21 23:31:00,
2013-01-21 15:33:00,37.0,35.3,30.17,SSW,202,0.0,1.3,94,0.00,,,0.00,WUHU21636XXSP,2013-01-21 23:33:00,
2013-01-21 15:35:00,37.0,35.3,30.17,SSW,202,0.0,1.3,94,0.00,,,0.00,WUHU21636XXSP,2013-01-21 23:35:00,
2013-01-21 15:36:00,37.0,35.3,30.17,SSW,202,0.0,1.3,94,0.00,,,0.00,WUHU21636XXSP,2013-01-21 23:36:00,
2013-01-21 15:38:00,37.0,35.3,30.17,SSW,202,0.0,0.0,94,0.00,,,0.00,WUHU21636XXSP,2013-01-21 23:38:00,
2013-01-21 15:40:00,37.0,35.6,30.17,SSW,202,0.0,0.0,95,0.00,,,0.00,WUHU21636XXSP,2013-01-21 23:40:00,
2013-01-21 15:42:00,37.0,35.6,30.17,SSW,202,0.0,0.0,95,0.00,,,0.00,WUHU21636XXSP,2013-01-21 23:42:00,
2013-01-21 15:43:00,37.0,35.6,30.17,SSW,202,0.0,0.0,95,0.00,,,0.00,WUHU21636XXSP,2013-01-21 23:43:00,
2013-01-21 15:45:00,37.2,35.8,30.17,SSW,202,0.0,0.0,95,0.00,,,0.00,WUHU21636XXSP,2013-01-21 23:45:00,
2013-01-21 15:47:00,37.6,36.2,30.17,SSW,202,0.0,0.0,95,0.00,,,0.00,WUHU21636XXSP,2013-01-21 23:47:00,
2013-01-21 15:48:00,37.6,36.2,30.17,SSW,202,0.0,0.0,95,0.00,,,0.00,WUHU21636XXSP,2013-01-21 23:48:00,
2013-01-21 15:50:00,37.6,36.2,30.17,SSW,202,0.0,0.0,95,0.00,,,0.00,WUHU21636XXSP,2013-01-21 23:50:00,
2013-01-21 15:52:00,37.6,35.9,30.17,SSW,202,0.0,0.0,94,0.00,,,0.00,WUHU21636XXSP,2013-01-21 23:52:00,
2013-01-21 15:53:00,37.6,35.9,30.17,SSW,202,0.0,0.0,94,0.00,,,0.00,WUHU21636XXSP,2013-01-21 23:53:00,
2013-01-21 15:55:00,37.6,35.9,30.16,SSW,202,0.0,0.0,94,0.00,,,0.00,WUHU21636XXSP,2013-01-21 23:55:00,
2013-01-21 15:57:00,37.6,35.9,30.17,SSW,202,0.0,0.0,94,0.00,,,0.00,WUHU21636XXSP,2013-01-21 23:57:00,
2013-01-21 15:58:00,37.4,35.7,30.17,SSW,202,0.0,0.0,94,0.00,,,0.00,WUHU21636XXSP,2013-01-21 23:58:00,
2013-01-21 16:00:00,37.6,35.9,30.17,SSW,202,0.0,0.0,94,0.00,,,0.00,WUHU21636XXSP,2013-01-22 00:00:00,
2013-01-21 16:02:00,37.2,35.5,30.17,SSW,202,0.0,0.0,94,0.00,,,0.00,WUHU21636XXSP,2013-01-22 00:02:00,
2013-01-21 16:03:00,37.2,35.5,30.17,SSW,202,0.0,0.0,94,0.00,,,0.00,WUHU21636XXSP,2013-01-22 00:03:00,
2013-01-21 16:05:00,37.2,35.5,30.16,SSW,202,0.0,0.0,94,0.00,,,0.00,WUHU21636XXSP,2013-01-22 00:05:00,
2013-01-21 16:07:00,37.2,35.5,30.17,SSW,202,0.0,0.0,94,0.00,,,0.00,WUHU21636XXSP,2013-01-22 00:07:00,
2013-01-21 16:08:00,37.2,35.5,30.17,SSW,202,0.0,0.0,94,0.00,,,0.00,WUHU21636XXSP,2013-01-22 00:08:00,
2013-01-21 16:10:00,37.2,35.5,30.17,SSW,202,0.0,0.0,94,0.00,,,0.00,WUHU21636XXSP,2013-01-22 00:10:00,
2013-01-21 16:12:00,37.2,35.5,30.17,SSW,202,0.0,0.0,94,0.00,,,0.00,WUHU21636XXSP,2013-01-22 00:12:00,
2013-01-21 16:13:00,37.2,35.5,30.17,SSW,202,0.0,0.0,94,0.00,,,0.00,WUHU21636XXSP,2013-01-22 00:13:00,
2013-01-21 16:15:00,37.0,35.3,30.17,SSW,202,0.0,0.0,94,0.00,,,0.00,WUHU21636XXSP,2013-01-22 00:15:00,
2013-01-21 16:17:00,37.0,35.3,30.17,SSW,202,0.0,0.0,94,0.00,,,0.00,WUHU21636XXSP,2013-01-22 00:17:00,
2013-01-21 16:18:00,37.0,35.3,30.17,SSW,202,0.0,0.0,94,0.00,,,0.00,WUHU21636XXSP,2013-01-22 00:18:00,
2013-01-21 16:20:00,36.9,35.2,30.17,SSW,202,0.0,0.0,94,0.00,,,0.00,WUHU21636XXSP,2013-01-22 00:20:00,
2013-01-21 16:22:00,36.9,35.2,30.17,SSW,202,0.0,0.0,94,0.00,,,0.00,WUHU21636XXSP,2013-01-22 00:22:00,
2013-01-21 16:23:00,36.7,35.0,30.17,SSW,202,0.0,0.0,94,0.00,,,0.00,WUHU21636XXSP,2013-01-22 00:23:00,
2013-01-21 16:25:00,36.7,35.0,30.17,SSE,157,0.0,0.0,94,0.00,,,0.00,WUHU21636XXSP,2013-01-22 00:25:00,
2013-01-21 16:27:00,36.7,35.0,30.17,SSE,157,0.0,0.0,94,0.00,,,0.00,WUHU21636XXSP,2013-01-22 00:27:00,
2013-01-21 16:29:00,36.5,34.8,30.17,SE,135,0.0,0.0,94,0.00,,,0.00,WUHU21636XXSP,2013-01-22 00:29:00,
2013-01-21 16:30:00,36.3,34.6,30.17,SE,135,0.0,0.0,94,0.00,,,0.00,WUHU21636XXSP,2013-01-22 00:30:00,
2013-01-21 16:31:00,36.3,34.6,30.17,SE,135,0.0,0.0,94,0.00,,,0.00,WUHU21636XXSP,2013-01-22 00:31:00,
2013-01-21 16:32:00,36.3,34.6,30.17,SE,135,0.0,0.0,94,0.00,,,0.00,WUHU21636XXSP,2013-01-22 00:32:00,
2013-01-21 16:34:00,36.3,34.6,30.17,SE,135,0.0,0.0,94,0.00,,,0.00,WUHU21636XXSP,2013-01-22 00:34:00,
2013-01-21 16:36:00,36.3,34.6,30.17,SE,135,0.0,0.0,94,0.00,,,0.00,WUHU21636XXSP,2013-01-22 00:36:00,
2013-01-21 16:37:00,36.3,34.6,30.17,SE,135,0.0,0.0,94,0.00,,,0.00,WUHU21636XXSP,2013-01-22 00:37:00,
2013-01-21 16:39:00,36.3,34.6,30.17,SE,135,0.0,0.0,94,0.00,,,0.00,WUHU21636XXSP,2013-01-22 00:39:00,
2013-01-21 16:41:00,36.3,34.6,30.16,SSE,157,0.0,0.0,94,0.00,,,0.00,WUHU21636XXSP,2013-01-22 00:41:00,
2013-01-21 16:42:00,36.3,34.6,30.16,SSE,157,0.0,0.0,94,0.00,,,0.00,WUHU21636XXSP,2013-01-22 00:42:00,
2013-01-21 16:44:00,36.1,34.4,30.16,ESE,112,0.4,0.4,94,0.00,,,0.00,WUHU21636XXSP,2013-01-22 00:44:00,
2013-01-21 16:46:00,36.1,34.7,30.16,ESE,112,0.4,0.4,95,0.00,,,0.00,WUHU21636XXSP,2013-01-22 00:46:00,
2013-01-21 16:47:00,36.1,34.7,30.16,ESE,112,0.0,0.4,95,0.00,,,0.00,WUHU21636XXSP,2013-01-22 00:47:00,
2013-01-21 16:49:00,36.1,34.7,30.17,ESE,112,0.0,0.4,95,0.00,,,0.00,WUHU21636XXSP,2013-01-22 00:49:00,
2013-01-21 16:51:00,36.1,34.7,30.16,ESE,112,0.0,0.4,95,0.00,,,0.00,WUHU21636XXSP,2013-01-22 00:51:00,
2013-01-21 16:52:00,36.0,34.6,30.16,ESE,112,0.0,0.4,95,0.00,,,0.00,WUHU21636XXSP,2013-01-22 00:52:00,
2013-01-21 16:53:00,36.0,34.6,30.16,ESE,112,0.0,0.4,95,0.00,,,0.00,WUHU21636XXSP,2013-01-22 00:53:00,
2013-01-21 16:55:00,36.0,34.6,30.16,ESE,112,0.0,0.0,95,0.00,,,0.00,WUHU21636XXSP,2013-01-22 00:55:00,
2013-01-21 16:56:00,36.0,34.6,30.16,ESE,112,0.0,0.0,95,0.00,,,0.00,WUHU21636XXSP,2013-01-22 00:56:00,
2013-01-21 16:57:00,36.0,34.6,30.16,ESE,112,0.0,0.0,95,0.00,,,0.00,WUHU21636XXSP,2013-01-22 00:57:00,
2013-01-21 16:58:00,36.0,34.6,30.16,ESE,112,0.0,0.0,95,0.00,,,0.00,WUHU21636XXSP,2013-01-22 00:58:00,
2013-01-21 17:00:00,36.0,34.6,30.16,ESE,112,0.0,0.0,95,0.00,,,0.00,WUHU21636XXSP,2013-01-22 01:00:00,
2013-01-21 17:02:00,36.0,34.6,30.16,ESE,112,0.0,0.0,95,0.00,,,0.00,WUHU21636XXSP,2013-01-22 01:02:00,
2013-01-21 17:03:00,36.1,34.7,30.16,ESE,112,0.0,0.0,95,0.00,,,0.00,WUHU21636XXSP,2013-01-22 01:03:00,
2013-01-21 17:05:00,36.0,34.6,30.16,ESE,112,0.0,0.0,95,0.00,,,0.00,WUHU21636XXSP,2013-01-22 01:05:00,
2013-01-21 17:07:00,36.0,34.6,30.16,ESE,112,0.0,0.0,95,0.00,,,0.00,WUHU21636XXSP,2013-01-22 01:07:00,
2013-01-21 17:08:00,36.0,34.6,30.16,ESE,112,0.0,0.0,95,0.00,,,0.00,WUHU21636XXSP,2013-01-22 01:08:00,
2013-01-21 17:11:00,35.8,34.4,30.15,ESE,112,0.0,0.0,95,0.00,,,0.00,WUHU21636XXSP,2013-01-22 01:11:00,
2013-01-21 17:12:00,35.8,34.4,30.16,ESE,112,0.0,0.0,95,0.00,,,0.00,WUHU21636XXSP,2013-01-22 01:12:00,
2013-01-21 17:13:00,35.8,34.4,30.16,ESE,112,0.0,0.0,95,0.00,,,0.00,WUHU21636XXSP,2013-01-22 01:13:00,
2013-01-21 17:16:00,35.8,34.4,30.15,ESE,112,0.0,0.0,95,0.00,,,0.00,WUHU21636XXSP,2013-01-22 01:16:00,
2013-01-21 17:17:00,35.8,34.4,30.16,ESE,112,0.0,0.0,95,0.00,,,0.00,WUHU21636XXSP,2013-01-22 01:17:00,
2013-01-21 17:18:00,35.8,34.4,30.15,ESE,112,0.0,0.0,95,0.00,,,0.00,WUHU21636XXSP,2013-01-22 01:18:00,
2013-01-21 17:21:00,35.8,34.4,30.15,ESE,112,0.0,0.0,95,0.00,,,0.00,WUHU21636XXSP,2013-01-22 01:21:00,
2013-01-21 17:22:00,35.8,34.4,30.15,ESE,112,0.0,0.0,95,0.00,,,0.00,WUHU21636XXSP,2013-01-22 01:22:00,
2013-01-21 17:23:00,35.8,34.4,30.15,ESE,112,0.0,0.0,95,0.00,,,0.00,WUHU21636XXSP,2013-01-22 01:23:00,
2013-01-21 17:26:00,35.6,34.2,30.16,ESE,112,0.0,0.0,95,0.00,,,0.00,WUHU21636XXSP,2013-01-22 01:26:00,
2013-01-21 17:27:00,35.6,34.2,30.16,ESE,112,0.0,0.0,95,0.00,,,0.00,WUHU21636XXSP,2013-01-22 01:27:00,
2013-01-21 17:29:00,35.6,34.2,30.15,ESE,112,0.0,0.0,95,0.00,,,0.00,WUHU21636XXSP,2013-01-22 01:29:00,
2013-01-21 17:31:00,35.4,34.0,30.15,SSE,157,0.0,0.0,95,0.00,,,0.00,WUHU21636XXSP,2013-01-22 01:31:00,
2013-01-21 17:32:00,35.4,34.0,30.15,SSE,157,0.0,0.0,95,0.00,,,0.00,WUHU21636XXSP,2013-01-22 01:32:00,
2013-01-21 17:34:00,35.4,34.0,30.15,ESE,112,0.0,0.0,95,0.00,,,0.00,WUHU21636XXSP,2013-01-22 01:34:00,
2013-01-21 17:36:00,35.2,33.8,30.15,SSE,157,0.0,0.0,95,0.00,,,0.00,WUHU21636XXSP,2013-01-22 01:36:00,
2013-01-21 17:37:00,35.2,33.8,30.15,SE,135,1.1,1.1,95,0.00,,,0.00,WUHU21636XXSP,2013-01-22 01:37:00,
2013-01-21 17:39:00,35.2,33.8,30.15,SE,135,1.1,1.1,95,0.00,,,0.00,WUHU21636XXSP,2013-01-22 01:39:00,
2013-01-21 17:41:00,35.1,33.7,30.15,ESE,112,0.0,1.1,95,0.00,,,0.00,WUHU21636XXSP,2013-01-22 01:41:00,
2013-01-21 17:42:00,35.1,33.7,30.15,ESE,112,0.0,1.1,95,0.00,,,0.00,WUHU21636XXSP,2013-01-22 01:42:00,
2013-01-21 17:44:00,35.1,34.0,30.15,ESE,112,0.0,1.1,96,0.00,,,0.00,WUHU21636XXSP,2013-01-22 01:44:00,
2013-01-21 17:47:00,34.9,33.8,30.15,ESE,112,0.0,1.1,96,0.00,,,0.00,WUHU21636XXSP,2013-01-22 01:47:00,
2013-01-21 17:49:00,34.9,33.8,30.15,SSE,157,0.0,0.0,96,0.00,,,0.00,WUHU21636XXSP,2013-01-22 01:49:00,
2013-01-21 17:52:00,35.1,34.0,30.15,SSE,157,0.0,0.0,96,0.00,,,0.00,WUHU21636XXSP,2013-01-22 01:52:00,
2013-01-21 17:54:00,35.1,34.0,30.15,SSE,157,0.0,0.0,96,0.00,,,0.00,WUHU21636XXSP,2013-01-22 01:54:00,
2013-01-21 17:55:00,35.1,34.0,30.15,SSE,157,0.0,0.0,96,0.00,,,0.00,WUHU21636XXSP,2013-01-22 01:55:00,
2013-01-21 17:57:00,35.1,34.0,30.15,SSE,157,0.0,0.0,96,0.00,,,0.00,WUHU21636XXSP,2013-01-22 01:57:00,
2013-01-21 17:59:00,35.1,34.0,30.15,SSE,157,0.0,0.0,96,0.00,,,0.00,WUHU21636XXSP,2013-01-22 01:59:00,
2013-01-21 18:00:00,35.1,34.0,30.15,SSE,157,0.0,0.0,96,0.00,,,0.00,WUHU21636XXSP,2013-01-22 02:00:00,
2013-01-21 18:02:00,34.7,33.6,30.15,SSE,157,0.0,0.0,96,0.00,,,0.00,WUHU21636XXSP,2013-01-22 02:02:00,
2013-01-21 18:04:00,34.7,33.6,30.15,SSE,157,0.0,0.0,96,0.00,,,0.00,WUHU21636XXSP,2013-01-22 02:04:00,
2013-01-21 18:05:00,34.7,33.6,30.15,SSE,157,0.0,0.0,96,0.00,,,0.00,WUHU21636XXSP,2013-01-22 02:05:00,
2013-01-21 18:07:00,34.5,33.4,30.15,SSE,157,0.0,0.0,96,0.00,,,0.00,WUHU21636XXSP,2013-01-22 02:07:00,
2013-01-21 18:09:00,34.5,33.4,30.15,SSE,157,0.0,0.0,96,0.00,,,0.00,WUHU21636XXSP,2013-01-22 02:09:00,
2013-01-21 18:10:00,34.5,33.4,30.15,SSE,157,0.0,0.0,96,0.00,,,0.00,WUHU21636XXSP,2013-01-22 02:10:00,
2013-01-21 18:12:00,34.7,33.6,30.15,SSE,157,0.0,0.0,96,0.00,,,0.00,WUHU21636XXSP,2013-01-22 02:12:00,
2013-01-21 18:14:00,34.7,33.6,30.16,SSE,157,0.0,0.0,96,0.00,,,0.00,WUHU21636XXSP,2013-01-22 02:14:00,
2013-01-21 18:15:00,34.7,33.6,30.16,SSE,157,0.0,0.0,96,0.00,,,0.00,WUHU21636XXSP,2013-01-22 02:15:00,
2013-01-21 18:17:00,34.7,33.6,30.16,SSE,157,0.0,0.0,96,0.00,,,0.00,WUHU21636XXSP,2013-01-22 02:17:00,
2013-01-21 18:18:00,34.7,33.6,30.16,SSE,157,0.0,0.0,96,0.00,,,0.00,WUHU21636XXSP,2013-01-22 02:18:00,
2013-01-21 18:19:00,34.7,33.6,30.16,SSE,157,0.0,0.0,96,0.00,,,0.00,WUHU21636XXSP,2013-01-22 02:19:00,
2013-01-21 18:20:00,34.7,33.6,30.16,SSE,157,0.0,0.0,96,0.00,,,0.00,WUHU21636XXSP,2013-01-22 02:20:00,
2013-01-21 18:22:00,34.5,33.4,30.16,SSE,157,0.0,0.0,96,0.00,,,0.00,WUHU21636XXSP,2013-01-22 02:22:00,
2013-01-21 18:23:00,34.5,33.4,30.15,SSE,157,0.0,0.0,96,0.00,,,0.00,WUHU21636XXSP,2013-01-22 02:23:00,
2013-01-21 18:24:00,34.5,33.4,30.15,SE,135,0.0,0.0,96,0.00,,,0.00,WUHU21636XXSP,2013-01-22 02:24:00,
2013-01-21 18:25:00,34.5,33.4,30.16,SE,135,0.0,0.0,96,0.00,,,0.00,WUHU21636XXSP,2013-01-22 02:25:00,
2013-01-21 18:27:00,34.7,33.6,30.16,ENE,67,0.0,0.0,96,0.00,,,0.00,WUHU21636XXSP,2013-01-22 02:27:00,
2013-01-21 18:29:00,34.7,33.6,30.16,East,90,0.0,0.0,96,0.00,,,0.00,WUHU21636XXSP,2013-01-22 02:29:00,
2013-01-21 18:30:00,34.7,33.6,30.16,East,90,0.0,0.0,96,0.00,,,0.00,WUHU21636XXSP,2013-01-22 02:30:00,
2013-01-21 18:33:00,34.5,33.4,30.16,East,90,0.0,0.0,96,0.00,,,0.00,WUHU21636XXSP,2013-01-22 02:33:00,
2013-01-21 18:34:00,34.5,33.4,30.16,East,90,0.0,0.0,96,0.00,,,0.00,WUHU21636XXSP,2013-01-22 02:34:00,
2013-01-21 18:35:00,34.7,33.6,30.16,East,90,0.0,0.0,96,0.00,,,0.00,WUHU21636XXSP,2013-01-22 02:35:00,
2013-01-21 18:38:00,34.7,33.6,30.16,East,90,0.0,0.0,96,0.00,,,0.00,WUHU21636XXSP,2013-01-22 02:38:00,
2013-01-21 18:39:00,34.7,33.6,30.15,East,90,0.0,0.0,96,0.00,,,0.00,WUHU21636XXSP,2013-01-22 02:39:00,
2013-01-21 18:41:00,34.7,33.6,30.15,East,90,0.0,0.0,96,0.00,,,0.00,WUHU21636XXSP,2013-01-22 02:41:00,
2013-01-21 18:43:00,34.5,33.4,30.15,East,90,0.0,0.0,96,0.00,,,0.00,WUHU21636XXSP,2013-01-22 02:43:00,
2013-01-21 18:44:00,34.5,33.4,30.15,East,90,0.0,0.0,96,0.00,,,0.00,WUHU21636XXSP,2013-01-22 02:44:00,
2013-01-21 18:46:00,34.5,33.4,30.15,ESE,112,0.0,0.0,96,0.00,,,0.00,WUHU21636XXSP,2013-01-22 02:46:00,
2013-01-21 18:48:00,34.5,33.4,30.15,ESE,112,0.0,0.0,96,0.00,,,0.00,WUHU21636XXSP,2013-01-22 02:48:00,
2013-01-21 18:49:00,34.5,33.4,30.15,ESE,112,0.0,0.0,96,0.00,,,0.00,WUHU21636XXSP,2013-01-22 02:49:00,
2013-01-21 18:50:00,34.5,33.4,30.15,South,180,0.0,0.0,96,0.00,,,0.00,WUHU21636XXSP,2013-01-22 02:50:00,
2013-01-21 18:51:00,34.5,33.4,30.15,South,180,0.0,0.0,96,0.00,,,0.00,WUHU21636XXSP,2013-01-22 02:51:00,
2013-01-21 18:53:00,34.5,33.4,30.15,South,180,0.0,0.0,96,0.00,,,0.00,WUHU21636XXSP,2013-01-22 02:53:00,
2013-01-21 18:54:00,34.5,33.4,30.15,South,180,0.0,0.0,96,0.00,,,0.00,WUHU21636XXSP,2013-01-22 02:54:00,
2013-01-21 18:55:00,34.5,33.4,30.15,South,180,0.0,0.0,96,0.00,,,0.00,WUHU21636XXSP,2013-01-22 02:55:00,
2013-01-21 18:56:00,34.5,33.4,30.15,South,180,0.0,0.0,96,0.00,,,0.00,WUHU21636XXSP,2013-01-22 02:56:00,
2013-01-21 18:59:00,34.3,33.2,30.15,South,180,0.0,0.0,96,0.00,,,0.00,WUHU21636XXSP,2013-01-22 02:59:00,
2013-01-21 19:00:00,34.3,33.2,30.15,South,180,0.0,0.0,96,0.00,,,0.00,WUHU21636XXSP,2013-01-22 03:00:00,
2013-01-21 19:01:00,34.3,33.2,30.15,South,180,0.0,0.0,96,0.00,,,0.00,WUHU21636XXSP,2013-01-22 03:01:00,
2013-01-21 19:04:00,34.3,33.2,30.15,South,180,0.0,0.0,96,0.00,,,0.00,WUHU21636XXSP,2013-01-22 03:04:00,
2013-01-21 19:05:00,34.3,33.2,30.15,South,180,0.0,0.0,96,0.00,,,0.00,WUHU21636XXSP,2013-01-22 03:05:00,
2013-01-21 19:06:00,34.3,33.2,30.15,South,180,0.0,0.0,96,0.00,,,0.00,WUHU21636XXSP,2013-01-22 03:06:00,
2013-01-21 19:09:00,34.3,33.2,30.15,SSE,157,0.0,0.0,96,0.00,,,0.00,WUHU21636XXSP,2013-01-22 03:09:00,
2013-01-21 19:10:00,34.5,33.4,30.15,SSE,157,0.0,0.0,96,0.00,,,0.00,WUHU21636XXSP,2013-01-22 03:10:00,
2013-01-21 19:11:00,34.5,33.4,30.15,SSE,157,0.0,0.0,96,0.00,,,0.00,WUHU21636XXSP,2013-01-22 03:11:00,
2013-01-21 19:14:00,34.5,33.4,30.15,SSE,157,0.0,0.0,96,0.00,,,0.00,WUHU21636XXSP,2013-01-22 03:14:00,
2013-01-21 19:15:00,34.5,33.4,30.16,SSE,157,0.0,0.0,96,0.00,,,0.00,WUHU21636XXSP,2013-01-22 03:15:00,
2013-01-21 19:16:00,34.5,33.4,30.16,SE,135,0.0,0.0,96,0.00,,,0.00,WUHU21636XXSP,2013-01-22 03:16:00,
2013-01-21 19:19:00,34.5,33.4,30.16,SE,135,0.0,0.0,96,0.00,,,0.00,WUHU21636XXSP,2013-01-22 03:19:00,
2013-01-21 19:20:00,34.5,33.4,30.16,SE,135,0.0,0.0,96,0.00,,,0.00,WUHU21636XXSP,2013-01-22 03:20:00,
2013-01-21 19:21:00,34.5,33.4,30.16,SE,135,0.0,0.0,96,0.00,,,0.00,WUHU21636XXSP,2013-01-22 03:21:00,
2013-01-21 19:24:00,34.5,33.4,30.16,SSE,157,2.2,2.2,96,0.00,,,0.00,WUHU21636XXSP,2013-01-22 03:24:00,
2013-01-21 19:26:00,34.5,33.4,30.15,SSE,157,2.2,2.2,96,0.00,,,0.00,WUHU21636XXSP,2013-01-22 03:26:00,
2013-01-21 19:29:00,34.5,33.4,30.15,SSE,157,0.0,2.2,96,0.00,,,0.00,WUHU21636XXSP,2013-01-22 03:29:00,
2013-01-21 19:31:00,34.5,33.4,30.15,SSE,157,0.6,2.2,96,0.00,,,0.00,WUHU21636XXSP,2013-01-22 03:31:00,
2013-01-21 19:32:00,34.5,33.4,30.15,SSE,157,0.6,2.2,96,0.00,,,0.00,WUHU21636XXSP,2013-01-22 03:32:00,
2013-01-21 19:34:00,34.5,33.4,30.15,SSE,157,0.6,0.6,96,0.00,,,0.00,WUHU21636XXSP,2013-01-22 03:34:00,
2013-01-21 19:36:00,34.5,33.4,30.15,SSE,157,0.0,0.6,96,0.00,,,0.00,WUHU21636XXSP,2013-01-22 03:36:00,
2013-01-21 19:37:00,34.5,33.4,30.15,SSE,157,0.0,0.6,96,0.00,,,0.00,WUHU21636XXSP,2013-01-22 03:37:00,
2013-01-21 19:39:00,34.5,33.4,30.15,SSE,157,0.0,0.6,96,0.00,,,0.00,WUHU21636XXSP,2013-01-22 03:39:00,
2013-01-21 19:41:00,34.5,33.4,30.14,SSE,157,0.0,0.6,96,0.00,,,0.00,WUHU21636XXSP,2013-01-22 03:41:00,
2013-01-21 19:42:00,34.5,33.4,30.15,SSE,157,0.0,0.6,96,0.00,,,0.00,WUHU21636XXSP,2013-01-22 03:42:00,
2013-01-21 19:44:00,34.5,33.4,30.14,SSE,157,0.0,0.0,96,0.00,,,0.00,WUHU21636XXSP,2013-01-22 03:44:00,
2013-01-21 19:45:00,34.5,33.4,30.15,SSE,157,0.0,0.0,96,0.00,,,0.00,WUHU21636XXSP,2013-01-22 03:45:00,
2013-01-21 19:46:00,34.5,33.4,30.15,SSE,157,0.0,0.0,96,0.00,,,0.00,WUHU21636XXSP,2013-01-22 03:46:00,
2013-01-21 19:47:00,34.5,33.4,30.15,SSE,157,0.0,0.0,96,0.00,,,0.00,WUHU21636XXSP,2013-01-22 03:47:00,
2013-01-21 19:49:00,34.5,33.4,30.15,SSE,157,0.0,0.0,96,0.00,,,0.00,WUHU21636XXSP,2013-01-22 03:49:00,
2013-01-21 19:50:00,34.5,33.4,30.15,SSE,157,0.0,0.0,96,0.00,,,0.00,WUHU21636XXSP,2013-01-22 03:50:00,
2013-01-21 19:51:00,34.5,33.4,30.15,South,180,0.0,0.0,96,0.00,,,0.00,WUHU21636XXSP,2013-01-22 03:51:00,
2013-01-21 19:52:00,34.5,33.4,30.15,SSE,157,0.0,0.0,96,0.00,,,0.00,WUHU21636XXSP,2013-01-22 03:52:00,
2013-01-21 19:55:00,34.5,33.4,30.15,SSE,157,0.0,0.0,96,0.00,,,0.00,WUHU21636XXSP,2013-01-22 03:55:00,
2013-01-21 19:56:00,34.5,33.4,30.15,SSE,157,0.0,0.0,96,0.00,,,0.00,WUHU21636XXSP,2013-01-22 03:56:00,
2013-01-21 19:57:00,34.5,33.4,30.15,SSE,157,0.0,0.0,96,0.00,,,0.00,WUHU21636XXSP,2013-01-22 03:57:00,
2013-01-21 20:00:00,34.5,33.4,30.15,SSE,157,0.0,0.0,96,0.00,,,0.00,WUHU21636XXSP,2013-01-22 04:00:00,
2013-01-21 20:01:00,34.5,33.4,30.15,SSE,157,0.0,0.0,96,0.00,,,0.00,WUHU21636XXSP,2013-01-22 04:01:00,
2013-01-21 20:03:00,34.5,33.4,30.15,SSE,157,0.0,0.0,96,0.00,,,0.00,WUHU21636XXSP,2013-01-22 04:03:00,
2013-01-21 20:05:00,34.5,33.4,30.15,SSE,157,0.0,0.0,96,0.00,,,0.00,WUHU21636XXSP,2013-01-22 04:05:00,
2013-01-21 20:06:00,34.5,33.4,30.16,SSE,157,0.0,0.0,96,0.00,,,0.00,WUHU21636XXSP,2013-01-22 04:06:00,
2013-01-21 20:08:00,34.5,33.4,30.15,SSE,157,0.0,0.0,96,0.00,,,0.00,WUHU21636XXSP,2013-01-22 04:08:00,
2013-01-21 20:10:00,34.5,33.4,30.15,SSE,157,0.0,0.0,96,0.00,,,0.00,WUHU21636XXSP,2013-01-22 04:10:00,
2013-01-21 20:11:00,34.5,33.4,30.15,SSE,157,0.0,0.0,96,0.00,,,0.00,WUHU21636XXSP,2013-01-22 04:11:00,
2013-01-21 20:12:00,34.5,33.4,30.15,SSE,157,0.0,0.0,96,0.00,,,0.00,WUHU21636XXSP,2013-01-22 04:12:00,
2013-01-21 20:15:00,34.5,33.4,30.15,SSE,157,0.0,0.0,96,0.00,,,0.00,WUHU21636XXSP,2013-01-22 04:15:00,
2013-01-21 20:16:00,34.5,33.4,30.15,SSE,157,0.0,0.0,96,0.00,,,0.00,WUHU21636XXSP,2013-01-22 04:16:00,
2013-01-21 20:18:00,34.5,33.4,30.15,SSE,157,0.0,0.0,96,0.00,,,0.00,WUHU21636XXSP,2013-01-22 04:18:00,
2013-01-21 20:20:00,34.2,33.1,30.15,ESE,112,0.0,0.0,96,0.00,,,0.00,WUHU21636XXSP,2013-01-22 04:20:00,
2013-01-21 20:21:00,34.2,33.1,30.15,ESE,112,0.0,0.0,96,0.00,,,0.00,WUHU21636XXSP,2013-01-22 04:21:00,
2013-01-21 20:23:00,34.2,33.1,30.15,ESE,112,0.0,0.0,96,0.00,,,0.00,WUHU21636XXSP,2013-01-22 04:23:00,
2013-01-21 20:25:00,34.0,32.9,30.15,ESE,112,0.0,0.0,96,0.00,,,0.00,WUHU21636XXSP,2013-01-22 04:25:00,
2013-01-21 20:26:00,34.0,32.9,30.15,ESE,112,0.0,0.0,96,0.00,,,0.00,WUHU21636XXSP,2013-01-22 04:26:00,
2013-01-21 20:28:00,34.0,32.9,30.15,ESE,112,0.0,0.0,96,0.00,,,0.00,WUHU21636XXSP,2013-01-22 04:28:00,
2013-01-21 20:30:00,34.0,32.9,30.15,SSE,157,0.0,0.0,96,0.00,,,0.00,WUHU21636XXSP,2013-01-22 04:30:00,
2013-01-21 20:31:00,33.8,32.7,30.15,SSE,157,0.0,0.0,96,0.00,,,0.00,WUHU21636XXSP,2013-01-22 04:31:00,
2013-01-21 20:32:00,33.8,32.7,30.15,SSE,157,0.0,0.0,96,0.00,,,0.00,WUHU21636XXSP,2013-01-22 04:32:00,
2013-01-21 20:33:00,33.8,32.7,30.15,SSE,157,0.0,0.0,96,0.00,,,0.00,WUHU21636XXSP,2013-01-22 04:33:00,
2013-01-21 20:35:00,33.6,32.5,30.15,SSE,157,0.8,0.8,96,0.00,,,0.00,WUHU21636XXSP,2013-01-22 04:35:00,
2013-01-21 20:36:00,33.6,32.5,30.15,SSE,157,0.8,0.8,96,0.00,,,0.00,WUHU21636XXSP,2013-01-22 04:36:00,
2013-01-21 20:38:00,33.6,32.5,30.15,SSE,157,0.8,0.8,96,0.00,,,0.00,WUHU21636XXSP,2013-01-22 04:38:00,
2013-01-21 20:41:00,33.6,32.5,30.15,SSE,157,0.0,0.8,96,0.00,,,0.00,WUHU21636XXSP,2013-01-22 04:41:00,
2013-01-21 20:42:00,33.4,32.6,30.15,ENE,67,0.0,0.8,97,0.00,,,0.00,WUHU21636XXSP,2013-01-22 04:42:00,
2013-01-21 20:43:00,33.4,32.6,30.15,ENE,67,0.0,0.8,97,0.00,,,0.00,WUHU21636XXSP,2013-01-22 04:43:00,
2013-01-21 20:46:00,33.4,32.3,30.15,NE,45,0.0,0.8,96,0.00,,,0.00,WUHU21636XXSP,2013-01-22 04:46:00,
2013-01-21 20:47:00,33.4,32.6,30.15,ENE,67,0.0,0.8,97,0.00,,,0.00,WUHU21636XXSP,2013-01-22 04:47:00,
2013-01-21 20:48:00,33.4,32.6,30.15,ENE,67,0.0,0.0,97,0.00,,,0.00,WUHU21636XXSP,2013-01-22 04:48:00,
2013-01-21 20:51:00,33.1,32.3,30.15,SSE,157,0.0,0.0,97,0.00,,,0.00,WUHU21636XXSP,2013-01-22 04:51:00,
2013-01-21 20:52:00,33.1,32.3,30.15,SSE,157,0.0,0.0,97,0.00,,,0.00,WUHU21636XXSP,2013-01-22 04:52:00,
2013-01-21 20:53:00,33.1,32.3,30.15,SSE,157,0.0,0.0,97,0.00,,,0.00,WUHU21636XXSP,2013-01-22 04:53:00,
2013-01-21 20:56:00,33.1,32.3,30.15,SSW,202,0.0,0.0,97,0.00,,,0.00,WUHU21636XXSP,2013-01-22 04:56:00,
2013-01-21 20:57:00,33.1,32.3,30.15,SSW,202,0.0,0.0,97,0.00,,,0.00,WUHU21636XXSP,2013-01-22 04:57:00,
2013-01-21 20:59:00,33.1,32.3,30.15,SSW,202,0.0,0.0,97,0.00,,,0.00,WUHU21636XXSP,2013-01-22 04:59:00,
2013-01-21 21:01:00,33.1,32.3,30.15,South,180,0.0,0.0,97,0.00,,,0.00,WUHU21636XXSP,2013-01-22 05:01:00,
2013-01-21 21:02:00,33.1,32.3,30.16,South,180,0.0,0.0,97,0.00,,,0.00,WUHU21636XXSP,2013-01-22 05:02:00,
2013-01-21 21:06:00,33.1,32.3,30.16,SSW,202,0.0,0.0,97,0.00,,,0.00,WUHU21636XXSP,2013-01-22 05:06:00,
2013-01-21 21:08:00,33.3,32.5,30.16,SSW,202,0.0,0.0,97,0.00,,,0.00,WUHU21636XXSP,2013-01-22 05:08:00,
2013-01-21 21:11:00,33.1,32.3,30.16,SSW,202,0.0,0.0,97,0.00,,,0.00,WUHU21636XXSP,2013-01-22 05:11:00,
2013-01-21 21:12:00,33.1,32.3,30.16,SSW,202,0.0,0.0,97,0.00,,,0.00,WUHU21636XXSP,2013-01-22 05:12:00,
2013-01-21 21:14:00,32.9,32.1,30.16,South,180,0.0,0.0,97,0.00,,,0.00,WUHU21636XXSP,2013-01-22 05:14:00,
2013-01-21 21:16:00,32.7,31.9,30.16,South,180,0.0,0.0,97,0.00,,,0.00,WUHU21636XXSP,2013-01-22 05:16:00,
2013-01-21 21:17:00,32.7,31.9,30.16,South,180,0.0,0.0,97,0.00,,,0.00,WUHU21636XXSP,2013-01-22 05:17:00,
2013-01-21 21:19:00,32.7,31.9,30.16,South,180,0.0,0.0,97,0.00,,,0.00,WUHU21636XXSP,2013-01-22 05:19:00,
2013-01-21 21:21:00,32.7,31.9,30.16,South,180,0.0,0.0,97,0.00,,,0.00,WUHU21636XXSP,2013-01-22 05:21:00,
2013-01-21 21:22:00,32.7,31.9,30.16,South,180,0.0,0.0,97,0.00,,,0.00,WUHU21636XXSP,2013-01-22 05:22:00,
2013-01-21 21:24:00,32.7,31.9,30.17,South,180,0.0,0.0,97,0.00,,,0.00,WUHU21636XXSP,2013-01-22 05:24:00,
2013-01-21 21:27:00,32.5,31.7,30.17,South,180,0.0,0.0,97,0.00,,,0.00,WUHU21636XXSP,2013-01-22 05:27:00,
2013-01-21 21:29:00,32.5,31.7,30.17,East,90,0.0,0.0,97,0.00,,,0.00,WUHU21636XXSP,2013-01-22 05:29:00,
2013-01-21 21:32:00,32.5,31.7,30.17,East,90,0.0,0.0,97,0.00,,,0.00,WUHU21636XXSP,2013-01-22 05:32:00,
2013-01-21 21:35:00,32.5,31.7,30.16,ESE,112,0.0,0.0,97,0.00,,,0.00,WUHU21636XXSP,2013-01-22 05:35:00,
2013-01-21 21:37:00,32.5,31.7,30.16,ESE,112,0.0,0.0,97,0.00,,,0.00,WUHU21636XXSP,2013-01-22 05:37:00,
2013-01-21 21:40:00,32.5,31.7,30.16,SE,135,0.0,0.0,97,0.00,,,0.00,WUHU21636XXSP,2013-01-22 05:40:00,
2013-01-21 21:42:00,32.5,31.7,30.17,SE,135,0.0,0.0,97,0.00,,,0.00,WUHU21636XXSP,2013-01-22 05:42:00,
2013-01-21 21:43:00,32.5,31.7,30.17,SE,135,0.0,0.0,97,0.00,,,0.00,WUHU21636XXSP,2013-01-22 05:43:00,
2013-01-21 21:45:00,32.5,31.7,30.17,SE,135,0.0,0.0,97,0.00,,,0.00,WUHU21636XXSP,2013-01-22 05:45:00,
2013-01-21 21:47:00,32.5,31.7,30.17,SE,135,0.0,0.0,97,0.00,,,0.00,WUHU21636XXSP,2013-01-22 05:47:00,
2013-01-21 21:48:00,32.5,31.7,30.17,SE,135,0.0,0.0,97,0.00,,,0.00,WUHU21636XXSP,2013-01-22 05:48:00,
2013-01-21 21:50:00,32.5,31.7,30.16,SSW,202,0.0,0.0,97,0.00,,,0.00,WUHU21636XXSP,2013-01-22 05:50:00,
2013-01-21 21:52:00,32.5,31.7,30.16,SE,135,0.0,0.0,97,0.00,,,0.00,WUHU21636XXSP,2013-01-22 05:52:00,
2013-01-21 21:53:00,32.5,31.7,30.16,ESE,112,0.0,0.0,97,0.00,,,0.00,WUHU21636XXSP,2013-01-22 05:53:00,
2013-01-21 21:55:00,32.5,31.7,30.16,ESE,112,0.0,0.0,97,0.00,,,0.00,WUHU21636XXSP,2013-01-22 05:55:00,
2013-01-21 21:57:00,32.5,31.7,30.16,ESE,112,0.0,0.0,97,0.00,,,0.00,WUHU21636XXSP,2013-01-22 05:57:00,
2013-01-21 21:58:00,32.5,31.7,30.16,ESE,112,0.0,0.0,97,0.00,,,0.00,WUHU21636XXSP,2013-01-22 05:58:00,
2013-01-21 22:00:00,32.5,31.7,30.16,ESE,112,0.0,0.0,97,0.00,,,0.00,WUHU21636XXSP,2013-01-22 06:00:00,
2013-01-21 22:02:00,32.5,31.7,30.16,ESE,112,0.0,0.0,97,0.00,,,0.00,WUHU21636XXSP,2013-01-22 06:02:00,
2013-01-21 22:03:00,32.5,31.7,30.16,ESE,112,0.0,0.0,97,0.00,,,0.00,WUHU21636XXSP,2013-01-22 06:03:00,
2013-01-21 22:05:00,32.5,31.7,30.16,ESE,112,0.0,0.0,97,0.00,,,0.00,WUHU21636XXSP,2013-01-22 06:05:00,
2013-01-21 22:07:00,32.5,31.7,30.16,ESE,112,0.0,0.0,97,0.00,,,0.00,WUHU21636XXSP,2013-01-22 06:07:00,
2013-01-21 22:08:00,32.5,31.7,30.16,ESE,112,0.0,0.0,97,0.00,,,0.00,WUHU21636XXSP,2013-01-22 06:08:00,
2013-01-21 22:10:00,32.5,31.7,30.16,ESE,112,0.0,0.0,97,0.00,,,0.00,WUHU21636XXSP,2013-01-22 06:10:00,
2013-01-21 22:12:00,32.5,31.7,30.16,ESE,112,0.0,0.0,97,0.00,,,0.00,WUHU21636XXSP,2013-01-22 06:12:00,
2013-01-21 22:13:00,32.5,31.7,30.16,ESE,112,0.0,0.0,97,0.00,,,0.00,WUHU21636XXSP,2013-01-22 06:13:00,
2013-01-21 22:15:00,32.5,31.7,30.16,ESE,112,0.0,0.0,97,0.00,,,0.00,WUHU21636XXSP,2013-01-22 06:15:00,
2013-01-21 22:17:00,32.7,31.9,30.16,SE,135,0.0,0.0,97,0.00,,,0.00,WUHU21636XXSP,2013-01-22 06:17:00,
2013-01-21 22:18:00,32.7,31.9,30.16,SE,135,0.0,0.0,97,0.00,,,0.00,WUHU21636XXSP,2013-01-22 06:18:00,
2013-01-21 22:20:00,32.5,31.7,30.16,SE,135,0.0,0.0,97,0.00,,,0.00,WUHU21636XXSP,2013-01-22 06:20:00,
2013-01-21 22:23:00,32.7,31.9,30.16,SE,135,0.0,0.0,97,0.00,,,0.00,WUHU21636XXSP,2013-01-22 06:23:00,
2013-01-21 22:26:00,32.7,31.9,30.15,SSE,157,2.0,2.0,97,0.00,,,0.00,WUHU21636XXSP,2013-01-22 06:26:00,
2013-01-21 22:28:00,32.5,31.7,30.15,SSE,157,2.0,2.0,97,0.00,,,0.00,WUHU21636XXSP,2013-01-22 06:28:00,
2013-01-21 22:31:00,32.4,31.6,30.15,SSE,157,0.0,2.0,97,0.00,,,0.00,WUHU21636XXSP,2013-01-22 06:31:00,
2013-01-21 22:33:00,32.4,31.6,30.16,SSE,157,0.0,2.0,97,0.00,,,0.00,WUHU21636XXSP,2013-01-22 06:33:00,
2013-01-21 22:36:00,32.4,31.6,30.16,SSE,157,0.0,2.0,97,0.00,,,0.00,WUHU21636XXSP,2013-01-22 06:36:00,
2013-01-21 22:38:00,32.5,31.7,30.15,SSE,157,0.0,0.0,97,0.00,,,0.00,WUHU21636XXSP,2013-01-22 06:38:00,
2013-01-21 22:39:00,32.5,31.7,30.15,SSE,157,0.0,0.0,97,0.00,,,0.00,WUHU21636XXSP,2013-01-22 06:39:00,
2013-01-21 22:41:00,32.5,31.7,30.15,SSE,157,0.0,0.0,97,0.00,,,0.00,WUHU21636XXSP,2013-01-22 06:41:00,
2013-01-21 22:44:00,32.5,31.7,30.16,SSE,157,0.0,0.0,97,0.00,,,0.00,WUHU21636XXSP,2013-01-22 06:44:00,
2013-01-21 22:46:00,32.5,31.7,30.15,SSE,157,0.0,0.0,97,0.00,,,0.00,WUHU21636XXSP,2013-01-22 06:46:00,
2013-01-21 22:49:00,32.5,31.7,30.15,SSE,157,0.0,0.0,97,0.00,,,0.00,WUHU21636XXSP,2013-01-22 06:49:00,
2013-01-21 22:51:00,32.5,31.7,30.16,SSE,157,0.0,0.0,97,0.00,,,0.00,WUHU21636XXSP,2013-01-22 06:51:00,
2013-01-21 22:54:00,32.5,31.7,30.15,SSE,157,0.0,0.0,97,0.00,,,0.00,WUHU21636XXSP,2013-01-22 06:54:00,
2013-01-21 22:56:00,32.5,31.7,30.16,SSE,157,0.0,0.0,97,0.00,,,0.00,WUHU21636XXSP,2013-01-22 06:56:00,
2013-01-21 22:59:00,32.5,31.7,30.16,SSE,157,0.0,0.0,97,0.00,,,0.00,WUHU21636XXSP,2013-01-22 06:59:00,
2013-01-21 23:02:00,32.7,31.9,30.16,SSE,157,0.0,0.0,97,0.00,,,0.00,WUHU21636XXSP,2013-01-22 07:02:00,
2013-01-21 23:04:00,32.7,31.9,30.16,SSE,157,0.0,0.0,97,0.00,,,0.00,WUHU21636XXSP,2013-01-22 07:04:00,
2013-01-21 23:07:00,32.7,31.9,30.16,SSE,157,0.0,0.0,97,0.00,,,0.00,WUHU21636XXSP,2013-01-22 07:07:00,
2013-01-21 23:09:00,32.7,31.9,30.16,SSE,157,0.0,0.0,97,0.00,,,0.00,WUHU21636XXSP,2013-01-22 07:09:00,
2013-01-21 23:12:00,32.7,31.9,30.16,SSE,157,0.0,0.0,97,0.00,,,0.00,WUHU21636XXSP,2013-01-22 07:12:00,
2013-01-21 23:14:00,32.7,31.9,30.16,SSE,157,0.0,0.0,97,0.00,,,0.00,WUHU21636XXSP,2013-01-22 07:14:00,
2013-01-21 23:15:00,32.7,31.9,30.16,SSE,157,0.0,0.0,97,0.00,,,0.00,WUHU21636XXSP,2013-01-22 07:15:00,
2013-01-21 23:17:00,32.7,31.9,30.16,SSE,157,0.0,0.0,97,0.00,,,0.00,WUHU21636XXSP,2013-01-22 07:17:00,
2013-01-21 23:19:00,32.7,31.9,30.16,SSE,157,0.0,0.0,97,0.00,,,0.00,WUHU21636XXSP,2013-01-22 07:19:00,
2013-01-21 23:20:00,32.7,31.9,30.16,SSE,157,0.0,0.0,97,0.00,,,0.00,WUHU21636XXSP,2013-01-22 07:20:00,
2013-01-21 23:22:00,32.7,31.9,30.16,SSE,157,0.0,0.0,97,0.00,,,0.00,WUHU21636XXSP,2013-01-22 07:22:00,
2013-01-21 23:24:00,32.7,31.9,30.16,SSE,157,0.0,0.0,97,0.00,,,0.00,WUHU21636XXSP,2013-01-22 07:24:00,
2013-01-21 23:25:00,32.7,31.9,30.16,SSE,157,0.0,0.0,97,0.00,,,0.00,WUHU21636XXSP,2013-01-22 07:25:00,
2013-01-21 23:27:00,32.7,31.9,30.15,SSE,157,0.0,0.0,97,0.00,,,0.00,WUHU21636XXSP,2013-01-22 07:27:00,
2013-01-21 23:29:00,32.7,31.9,30.15,SSE,157,0.0,0.0,97,0.00,,,0.00,WUHU21636XXSP,2013-01-22 07:29:00,
2013-01-21 23:30:00,32.7,31.9,30.15,SSE,157,0.0,0.0,97,0.00,,,0.00,WUHU21636XXSP,2013-01-22 07:30:00,
2013-01-21 23:32:00,32.7,31.9,30.15,SSE,157,0.0,0.0,97,0.00,,,0.00,WUHU21636XXSP,2013-01-22 07:32:00,
2013-01-21 23:34:00,32.7,31.9,30.15,SSE,157,0.0,0.0,97,0.00,,,0.00,WUHU21636XXSP,2013-01-22 07:34:00,
2013-01-21 23:35:00,32.7,31.9,30.15,SSE,157,0.0,0.0,97,0.00,,,0.00,WUHU21636XXSP,2013-01-22 07:35:00,
2013-01-21 23:37:00,32.7,31.9,30.14,SSE,157,0.0,0.0,97,0.00,,,0.00,WUHU21636XXSP,2013-01-22 07:37:00,
2013-01-21 23:39:00,32.7,31.9,30.14,SSE,157,0.0,0.0,97,0.00,,,0.00,WUHU21636XXSP,2013-01-22 07:39:00,
2013-01-21 23:40:00,32.7,31.9,30.14,SSE,157,0.0,0.0,97,0.00,,,0.00,WUHU21636XXSP,2013-01-22 07:40:00,
2013-01-21 23:41:00,32.7,31.9,30.14,SSE,157,0.0,0.0,97,0.00,,,0.00,WUHU21636XXSP,2013-01-22 07:41:00,
2013-01-21 23:43:00,32.5,31.7,30.14,ESE,112,0.0,0.0,97,0.00,,,0.00,WUHU21636XXSP,2013-01-22 07:43:00,
2013-01-21 23:44:00,32.5,31.7,30.14,SE,135,0.0,0.0,97,0.00,,,0.00,WUHU21636XXSP,2013-01-22 07:44:00,
2013-01-21 23:45:00,32.5,31.7,30.14,SE,135,0.0,0.0,97,0.00,,,0.00,WUHU21636XXSP,2013-01-22 07:45:00,
2013-01-21 23:46:00,32.5,31.7,30.14,SE,135,0.0,0.0,97,0.00,,,0.00,WUHU21636XXSP,2013-01-22 07:46:00,
2013-01-21 23:48:00,32.5,31.7,30.14,SE,135,0.0,0.0,97,0.00,,,0.00,WUHU21636XXSP,2013-01-22 07:48:00,
2013-01-21 23:50:00,32.5,31.7,30.14,SE,135,0.0,0.0,97,0.00,,,0.00,WUHU21636XXSP,2013-01-22 07:50:00,
2013-01-21 23:51:00,32.5,31.7,30.15,SE,135,0.0,0.0,97,0.00,,,0.00,WUHU21636XXSP,2013-01-22 07:51:00,
2013-01-21 23:53:00,32.5,31.7,30.15,SE,135,0.0,0.0,97,0.00,,,0.00,WUHU21636XXSP,2013-01-22 07:53:00,
2013-01-21 23:55:00,32.5,31.7,30.15,SE,135,0.0,0.0,97,0.00,,,0.00,WUHU21636XXSP,2013-01-22 07:55:00,
2013-01-21 23:56:00,32.5,31.7,30.14,SE,135,0.0,0.0,97,0.00,,,0.00,WUHU21636XXSP,2013-01-22 07:56:00,
2013-01-21 23:59:00,32.5,31.7,30.14,SE,135,0.0,0.0,97,0.00,,,0.00,WUHU21636XXSP,2013-01-22 07:59:00,